GFSGL_250_spd_000.txt.gz
Wind_Speed
67 69 75 79 85 88 92 93 102 104 105 110 108 110 100 92 81 70 60 56 50 45 39 38 48 57 57 56 58 71 76 87 93 102 119 121 112 97 91 86 76 66 51
66 72 79 82 86 91 95 98 104 106 109 111 110 103 93 83 72 63 56 50 46 42 37 35 44 57 57 58 58 62 68 80 92 97 116 116 106 97 86 81 70 63 48
70 75 81 85 88 93 96 103 104 108 112 109 107 100 90 73 65 57 51 45 40 37 33 34 43 51 53 55 57 59 69 87 94 95 112 113 97 97 92 78 69 66 52
73 78 83 86 92 97 99 104 107 109 111 108 103 98 86 66 60 51 45 40 36 32 30 35 44 52 52 52 55 55 69 78 90 92 112 113 105 99 88 81 65 56 47
76 80 84 89 95 99 104 106 107 111 108 106 97 93 79 61 53 45 39 35 32 29 29 35 43 50 54 53 55 58 63 76 87 93 110 118 111 97 84 82 67 63 52
78 83 87 93 98 101 104 107 108 111 111 102 94 87 73 58 48 43 35 31 28 27 28 35 44 52 55 57 58 60 64 77 86 90 109 112 111 89 87 71 67 55 57
81 85 90 96 101 102 105 109 109 109 113 96 90 79 67 54 46 41 32 26 25 25 28 36 45 51 55 57 63 67 72 82 90 91 110 108 106 91 78 72 59 59 56
83 88 94 97 102 103 107 109 111 109 110 89 85 72 64 53 45 36 30 23 23 26 31 37 44 53 58 60 65 71 77 84 92 96 102 109 103 89 81 69 67 61 58
87 92 96 101 104 106 108 109 110 109 106 87 79 68 59 51 43 32 25 21 22 28 33 38 45 52 57 62 62 73 80 87 96 100 102 107 105 94 79 75 64 55 51
91 94 98 101 104 107 108 108 109 110 101 85 74 65 55 48 39 27 24 20 23 30 36 40 48 49 51 55 69 77 77 78 87 99 106 105 100 94 83 71 66 59 52
93 96 100 103 105 108 106 109 107 108 93 82 69 59 51 42 35 24 21 20 25 34 39 45 51 51 56 63 74 73 78 85 92 106 108 106 96 91 77 71 64 60 56
94 98 101 104 106 107 107 109 110 107 88 78 68 56 47 37 31 21 19 21 28 36 43 49 53 60 64 69 72 77 87 90 99 110 107 102 92 80 77 72 67 64 58
96 99 102 104 107 107 108 107 109 102 85 74 65 53 45 33 29 19 18 24 31 39 47 54 62 64 63 65 75 82 88 95 91 101 110 97 85 84 81 73 73 69 59
98 102 103 106 107 109 106 108 107 92 77 70 61 52 42 31 27 17 18 27 34 42 50 56 65 69 70 72 74 86 91 94 90 98 105 98 91 87 84 76 70 62 59
100 102 106 108 108 108 103 107 104 82 71 64 60 49 39 28 25 17 19 28 36 44 51 61 70 75 80 86 84 88 89 91 91 94 106 99 90 90 81 74 66 64 57
100 103 106 108 105 106 103 104 100 77 66 60 56 44 33 26 24 17 20 29 39 46 55 66 73 76 83 81 86 88 91 91 94 94 104 100 95 87 76 70 67 61 58
100 103 108 107 104 102 104 102 84 75 63 58 55 44 30 22 22 17 21 31 41 45 56 68 75 80 85 83 84 85 87 88 90 95 95 94 90 81 75 72 63 58 59
104 105 107 104 105 102 104 99 70 65 60 58 52 41 27 20 21 17 21 32 42 44 58 71 77 83 86 87 86 85 85 88 92 94 94 90 84 81 77 72 64 59 59
104 104 104 103 102 100 96 80 66 61 54 55 52 34 26 19 20 19 22 33 43 44 63 71 77 83 87 90 89 90 91 94 96 93 94 91 85 82 81 74 69 64 61
104 104 100 101 100 95 94 68 63 56 53 54 49 35 25 19 20 20 24 34 43 49 64 73 79 86 91 94 91 89 88 88 90 92 92 89 83 78 75 76 71 67 62
98 97 97 99 92 90 85 65 63 55 52 50 45 33 25 21 21 22 27 36 46 54 69 76 81 88 93 96 94 95 93 92 96 96 92 91 87 86 76 73 71 71 66
94 95 96 89 88 88 69 67 60 55 51 47 40 31 25 22 22 25 29 37 48 57 70 79 85 89 95 99 98 99 99 97 98 97 95 92 88 83 78 73 72 71 66
93 93 90 86 84 83 65 67 61 54 49 43 39 30 25 23 23 26 31 38 51 60 74 80 86 91 96 101 104 104 105 103 99 99 93 89 85 84 80 72 69 70 62
89 88 81 79 84 72 65 65 57 53 45 40 37 28 23 22 23 26 32 41 52 61 74 81 85 91 98 102 104 105 104 97 95 94 92 88 81 81 78 71 68 66 62
87 83 76 83 78 64 69 60 53 48 41 36 33 24 20 20 23 26 33 42 52 59 68 84 85 91 96 101 103 102 97 98 97 92 86 84 84 79 76 74 74 66 63
84 78 82 83 74 65 65 55 49 42 37 33 28 22 17 19 23 26 33 42 53 58 66 77 88 92 94 95 100 100 101 97 94 92 91 88 86 83 80 78 74 70 67

GFSGL_250_spd_003.txt.gz
Wind_Speed
59 60 62 65 67 69 72 75 79 84 88 91 97 103 102 107 108 108 94 82 72 62 51 42 31 29 34 42 47 46 51 56 65 70 79 103 111 114 118 108 98 94 88
61 62 64 66 67 70 74 77 82 86 90 94 97 105 105 105 107 103 91 80 67 57 48 39 30 27 28 36 43 47 53 56 57 65 80 94 107 108 116 111 105 94 90
62 64 65 66 68 71 75 79 84 87 91 95 101 104 107 104 102 98 87 77 64 53 47 37 29 24 26 35 43 50 53 58 59 60 74 89 103 110 116 113 106 95 89
64 65 65 66 69 72 77 81 86 89 94 98 102 105 105 101 100 94 85 73 59 50 44 35 28 22 27 35 43 47 51 53 57 69 75 93 100 109 113 110 102 93 86
64 65 64 66 70 74 79 83 87 91 94 98 102 104 104 100 98 92 81 69 54 46 40 32 23 21 28 35 44 49 53 55 56 76 78 92 96 107 107 104 96 85 79
65 65 64 67 72 77 81 86 89 93 95 98 103 103 103 100 96 91 75 63 49 42 36 26 20 24 32 39 46 50 51 57 63 70 81 91 94 99 108 101 94 83 74
63 64 65 69 74 79 83 87 92 94 98 100 103 101 101 98 95 88 70 57 44 39 30 21 20 27 32 38 47 52 59 61 64 78 81 90 95 103 106 104 91 80 69
64 66 67 72 76 81 85 90 92 94 99 102 99 101 101 97 92 82 65 52 39 34 26 19 24 29 33 43 48 54 60 64 68 76 83 91 90 96 99 101 87 83 75
66 68 71 75 79 83 88 91 94 95 100 101 101 104 100 95 90 75 59 48 36 29 23 20 26 32 36 45 51 58 63 71 74 84 86 91 87 91 102 100 89 79 69
68 71 73 79 81 85 89 93 96 96 101 103 104 104 99 90 85 68 52 43 33 26 19 23 27 35 41 47 51 58 65 74 81 84 89 90 87 94 97 92 85 74 72
72 74 77 81 84 88 91 95 98 100 104 103 105 103 96 87 81 60 47 37 31 25 19 25 29 37 44 53 54 61 67 77 78 88 89 90 89 97 92 87 81 78 68
74 77 80 83 87 90 94 98 100 103 103 102 105 102 93 84 74 54 41 32 28 24 20 28 32 40 48 56 61 65 69 77 76 87 90 90 94 93 87 83 81 80 74
75 78 82 86 89 92 96 100 102 105 100 103 102 97 86 80 66 48 35 28 26 22 22 31 35 46 54 61 61 58 66 70 73 83 83 85 104 101 90 84 85 79 70
79 81 83 86 90 94 99 103 106 102 100 104 100 89 81 74 59 42 31 24 24 20 24 32 37 51 58 64 67 69 69 67 70 76 83 93 105 104 96 91 78 71 62
82 84 86 88 91 97 102 105 105 102 100 101 96 81 76 67 51 36 27 21 23 20 26 34 39 52 62 67 69 71 77 80 78 81 85 90 101 104 93 83 77 70 61
84 84 86 91 95 99 103 106 103 99 100 99 86 75 70 55 44 30 23 20 22 21 27 36 41 56 68 72 73 75 82 88 91 90 94 91 93 95 91 87 78 65 63
86 87 90 94 98 100 103 103 100 100 100 95 77 71 59 49 36 25 19 20 20 22 28 39 47 66 75 81 82 84 91 93 99 98 102 102 96 92 90 86 76 66 63
89 92 94 97 100 101 100 100 98 98 96 90 70 62 52 41 30 22 16 19 20 23 31 43 48 71 81 82 85 87 88 93 98 103 104 105 102 95 92 87 74 74 66
90 94 97 98 99 98 98 99 96 92 88 71 65 55 47 33 27 18 15 20 20 25 32 45 50 72 80 84 89 88 92 93 97 104 107 104 101 94 90 81 82 75 66
91 95 96 98 96 96 95 95 88 87 76 61 55 47 43 29 25 16 15 20 22 27 34 48 56 81 85 87 92 89 92 94 102 112 108 107 101 97 89 82 82 75 66
88 90 93 93 93 92 92 88 84 77 63 57 47 42 38 31 23 15 16 21 23 29 38 53 62 89 90 93 94 98 99 96 105 109 104 106 100 93 89 86 81 78 71
84 86 88 89 87 86 83 79 76 68 56 51 43 38 34 29 22 16 16 21 24 32 43 57 72 93 95 92 97 99 101 101 102 111 107 101 98 96 94 86 81 78 71
78 78 81 80 78 78 78 77 69 57 52 45 40 35 31 27 20 16 17 22 26 34 45 62 77 93 95 92 94 98 99 102 102 103 106 105 106 98 90 82 79 77 72
72 73 72 72 74 76 76 74 64 50 46 42 36 31 28 25 20 16 18 22 27 36 46 64 78 90 90 91 93 95 95 99 103 106 105 105 98 96 94 86 80 77 76
66 67 70 72 74 77 75 68 52 47 42 40 34 28 25 21 20 17 19 24 29 37 49 65 80 88 91 90 94 96 99 103 106 111 117 110 107 105 102 89 82 80 78
65 70 71 75 74 77 72 63 45 44 40 37 32 27 22 18 19 18 20 25 31 40 52 67 80 87 89 92 95 99 103 105 108 108 113 118 113 107 100 89 84 82 77

GFSGL_250_spd_006.txt.gz
Wind_Speed
53 53 57 58 60 62 62 63 64 66 68 70 72 77 82 87 91 94 98 101 104 104 86 74 60 50 43 37 38 41 39 40 48 49 60 68 74 84 94 105 107 115 108
53 55 57 59 62 63 63 63 65 67 69 72 74 80 84 87 91 95 99 103 105 100 80 69 56 48 38 33 35 34 37 43 45 53 61 67 75 86 90 105 108 112 106
56 57 59 62 64 63 64 64 65 67 70 74 76 81 85 89 92 95 101 105 105 91 76 64 54 45 32 29 29 31 37 42 47 53 60 63 69 75 86 101 106 110 106
58 59 62 64 64 64 64 64 66 67 73 75 79 83 86 90 93 96 103 105 104 83 72 59 51 42 30 26 25 31 36 40 46 53 57 66 75 79 88 101 104 105 104
61 63 64 66 65 65 64 64 67 70 74 77 81 86 88 92 93 98 105 104 97 81 69 55 47 37 28 23 25 32 38 42 50 56 60 68 74 77 82 96 103 103 102
65 65 66 67 67 66 65 66 69 73 75 80 83 86 91 93 94 101 103 101 87 77 65 51 44 33 25 19 27 33 39 45 50 53 58 66 66 74 83 91 101 98 102
69 69 68 68 66 66 67 68 72 75 78 81 86 87 91 93 95 102 101 98 81 72 61 48 40 29 22 20 29 33 40 42 50 53 59 65 73 77 84 86 93 89 93
70 69 68 67 65 67 69 70 73 77 80 82 88 88 89 93 98 101 101 93 80 67 56 46 37 25 20 22 30 36 44 48 51 55 63 68 72 78 85 90 96 99 95
73 71 68 66 67 69 71 74 76 79 82 86 88 91 89 94 98 101 100 86 78 61 51 43 33 23 21 26 34 42 49 52 55 60 65 72 75 76 86 93 96 106 102
74 72 70 69 70 73 75 77 79 81 84 87 90 89 90 95 99 103 97 80 76 57 48 39 29 21 22 28 35 43 47 51 59 62 70 76 79 81 89 89 93 99 90
77 73 72 72 75 76 78 78 82 82 86 89 91 91 93 96 100 102 93 77 67 55 45 35 26 21 24 30 40 47 54 59 60 69 75 78 78 82 89 91 91 91 81
76 75 76 78 79 78 79 81 83 85 88 90 93 93 95 97 99 101 86 72 60 51 40 31 21 21 26 33 43 51 54 61 67 70 73 80 83 86 87 93 95 91 85
80 81 82 81 79 80 80 84 85 88 89 92 94 95 95 97 99 98 79 66 56 47 35 27 19 23 28 36 48 56 62 64 64 73 74 74 84 86 92 98 96 93 86
82 82 80 80 79 81 83 86 88 89 90 93 94 95 94 96 95 93 74 61 51 42 30 23 18 24 28 42 51 61 64 65 65 75 78 80 83 88 94 100 97 90 83
79 79 80 80 81 82 86 88 90 90 91 93 94 92 91 92 92 86 70 57 48 38 27 19 19 26 32 47 55 61 68 70 73 76 79 84 91 96 100 97 95 86 81
77 78 79 78 81 83 87 90 90 91 92 94 92 88 89 87 87 77 62 49 44 33 24 18 22 29 35 51 60 61 68 69 77 80 85 89 91 96 99 97 92 86 81
75 76 75 77 79 85 86 88 92 91 92 93 90 86 85 85 80 68 56 43 38 30 22 19 26 32 42 56 64 65 69 73 80 85 91 94 96 96 96 92 87 85 82
73 70 72 77 78 82 85 88 90 93 94 91 87 82 82 80 70 60 51 39 32 26 22 21 29 36 48 61 70 72 73 76 83 89 91 88 90 91 93 93 90 84 78
67 71 72 72 78 81 85 86 90 90 90 89 85 79 78 73 61 52 44 36 28 24 22 24 32 39 55 66 75 79 80 81 85 91 94 90 90 95 96 92 88 84 74
68 67 69 74 77 82 85 88 87 88 88 83 76 75 72 65 56 44 36 31 24 22 22 27 36 45 58 74 81 82 84 83 89 91 93 94 95 98 95 93 88 80 78
66 67 69 73 78 82 81 84 85 84 79 74 73 68 64 57 47 39 30 26 22 22 23 31 40 50 66 78 83 85 88 86 90 97 102 103 101 101 100 94 91 84 80
60 63 66 72 73 76 77 78 77 75 73 70 65 59 56 50 41 33 25 22 22 23 26 35 44 56 68 79 88 89 93 93 92 97 98 99 100 102 97 94 91 85 79
55 58 60 65 68 70 71 69 69 68 69 62 55 53 51 43 36 28 22 21 22 24 29 39 48 62 72 84 88 91 96 97 94 96 104 110 104 101 93 93 87 80 75
46 51 57 62 62 61 63 64 64 65 60 50 45 49 45 36 30 24 19 20 23 27 33 44 54 69 82 88 90 92 97 98 101 102 109 111 105 100 97 92 88 84 77
46 51 52 57 57 60 61 62 65 60 48 42 43 46 35 30 25 21 18 20 23 29 36 47 58 75 88 89 89 92 96 99 103 109 111 108 107 106 102 96 95 93 82
45 53 55 57 58 60 60 65 61 53 41 38 43 38 29 25 21 19 18 19 24 30 39 50 63 82 90 93 93 94 97 102 104 113 105 108 107 102 100 95 93 94 84

GFSGL_250_spd_009.txt.gz
Wind_Speed
58 57 52 48 50 52 54 57 56 58 61 63 64 66 68 70 74 75 77 82 89 94 95 95 97 92 79 72 62 51 46 37 40 30 40 46 54 59 68 79 71 77 96
59 57 55 54 55 55 56 58 58 60 62 64 66 68 69 72 75 76 77 84 92 92 93 92 94 84 74 64 55 48 40 32 34 29 40 45 53 58 67 76 75 80 96
63 61 58 58 57 57 59 59 61 63 64 66 69 69 71 74 75 77 79 88 93 92 93 92 92 77 69 59 50 41 33 29 30 32 39 48 54 60 67 72 71 77 95
69 65 64 62 60 60 60 61 64 65 67 69 70 71 74 75 76 78 83 89 93 93 94 94 87 71 61 54 46 36 29 28 29 31 39 46 55 62 65 71 74 83 94
75 71 68 66 65 65 65 66 67 68 70 70 71 73 75 76 77 80 85 90 93 95 95 95 81 65 55 50 40 31 26 25 28 29 39 46 55 64 67 70 75 81 91
78 76 71 67 67 69 69 68 68 69 70 71 72 74 76 77 79 83 87 91 95 93 91 90 77 60 51 46 36 27 24 23 24 30 41 48 56 63 70 75 74 80 92
71 71 71 73 73 71 70 69 70 70 71 73 74 75 77 79 79 84 88 92 93 92 88 82 71 54 47 41 33 22 21 21 23 33 43 51 56 63 72 76 79 82 91
73 74 76 75 74 73 73 72 72 72 72 74 75 77 76 79 81 86 88 91 91 91 84 75 63 51 43 37 30 17 18 20 27 38 47 53 59 72 73 79 82 86 95
70 70 72 72 74 75 75 74 73 71 74 74 77 78 78 81 84 85 87 90 89 90 80 68 57 47 40 31 26 14 18 23 33 44 50 56 65 71 74 77 81 93 95
72 69 70 74 77 75 76 74 71 72 73 77 79 80 80 83 83 85 87 89 87 87 75 63 52 43 35 26 22 13 18 26 37 49 53 58 66 77 83 83 83 86 95
70 70 69 70 72 74 72 70 71 73 77 79 80 81 82 84 83 83 86 86 86 82 70 58 48 39 30 21 18 15 24 34 43 51 56 63 67 76 82 83 82 87 97
70 71 68 69 70 71 72 71 74 77 78 80 79 82 84 83 80 82 85 83 85 75 63 51 42 36 25 18 17 19 28 38 46 51 59 68 71 74 77 82 86 89 93
73 69 68 68 69 72 72 73 74 75 77 77 79 82 83 81 79 81 83 84 83 74 59 49 38 32 22 15 18 23 32 44 50 58 66 74 83 84 79 80 89 89 94
72 69 68 69 71 70 70 71 73 72 73 76 79 79 80 80 79 82 82 83 79 71 55 46 35 28 16 16 21 28 37 46 56 61 71 78 86 87 89 93 93 93 99
72 71 70 70 71 69 69 71 71 71 75 76 77 76 78 79 78 81 82 79 77 68 52 42 32 24 13 18 24 35 40 53 61 66 71 75 86 86 92 94 95 97 100
71 71 72 73 68 67 69 70 70 72 74 75 73 74 77 79 79 79 80 75 75 61 49 38 28 21 13 22 28 41 47 59 65 74 77 77 83 92 98 96 100 97 93
72 72 72 69 68 68 68 68 69 70 71 72 71 74 76 77 77 76 76 75 69 55 45 33 24 17 15 25 31 47 53 61 66 76 82 84 86 91 93 92 100 96 91
71 72 68 67 67 65 64 67 68 68 71 70 71 76 77 75 73 71 73 73 62 49 43 29 21 16 19 28 36 49 54 63 67 80 85 89 90 92 90 89 93 96 91
68 66 63 64 64 62 62 63 65 66 70 70 74 75 75 70 68 69 69 67 56 44 39 28 20 16 24 33 43 52 62 67 68 81 89 93 96 94 91 94 94 92 91
61 63 63 59 59 59 60 60 63 64 68 72 75 77 70 66 64 67 66 58 48 41 35 26 20 19 28 38 50 59 66 71 79 86 93 95 96 94 93 93 96 97 89
56 57 58 58 56 56 58 59 60 65 69 71 74 73 67 65 63 65 62 49 40 38 31 25 21 23 32 42 55 64 68 75 86 90 94 93 93 92 93 95 94 93 91
57 57 57 57 56 56 57 60 62 64 68 69 72 68 62 59 59 61 53 40 35 34 28 25 24 28 36 46 58 66 72 79 87 92 95 99 99 98 97 98 98 97 91
50 55 55 51 51 51 51 54 61 65 66 69 69 59 54 53 56 55 44 35 33 31 26 26 27 32 41 51 63 69 77 84 91 96 99 98 98 96 99 101 99 93 88
31 36 40 41 44 48 53 59 62 63 66 66 61 53 49 51 52 47 37 32 32 30 26 28 29 36 44 54 67 74 79 86 92 97 96 94 92 93 98 101 100 95 86
36 38 42 46 50 53 52 57 59 60 62 60 52 48 47 48 47 40 33 31 31 29 27 30 32 39 47 59 70 76 83 88 94 97 96 98 99 96 100 100 97 90 90
45 41 34 41 48 48 50 50 55 60 58 54 45 46 44 46 41 34 30 29 30 27 29 31 34 42 51 63 74 77 85 91 97 98 98 99 99 103 101 97 95 91 92

GFSGL_250_spd_012.txt.gz
Wind_Speed
82 78 78 76 69 64 60 57 54 54 54 55 56 57 57 59 62 65 69 71 74 77 79 81 86 88 92 95 95 95 84 71 56 58 51 41 40 34 37 43 51 66 76
81 79 78 76 68 62 58 55 56 57 57 57 58 58 59 61 64 67 70 71 75 78 80 83 87 90 92 95 95 91 76 66 52 47 49 35 36 32 37 44 54 64 73
84 82 78 75 68 64 61 60 59 59 61 60 59 59 63 65 64 68 70 72 76 79 80 85 89 91 94 93 91 84 70 60 50 40 42 31 31 33 38 44 56 66 71
85 83 78 72 71 70 67 65 64 64 64 61 61 62 64 65 66 71 72 74 77 79 82 86 90 91 94 90 87 76 65 52 45 36 32 29 29 32 39 47 57 67 69
86 82 77 73 73 73 71 69 67 67 63 62 65 67 67 68 69 72 72 75 79 81 84 88 90 92 93 87 81 67 58 46 38 31 25 25 28 33 42 50 61 68 72
87 81 76 71 73 72 71 70 66 64 62 66 69 68 68 70 71 74 72 77 81 82 84 88 88 92 89 82 74 60 49 39 31 23 20 24 28 37 45 54 64 69 73
87 82 79 71 72 68 66 64 65 64 65 67 65 66 69 71 73 74 75 80 81 84 84 84 87 89 78 75 66 54 42 32 27 16 19 24 29 38 48 57 64 70 72
88 84 79 72 70 66 63 62 64 63 63 64 65 67 68 71 71 73 76 81 81 84 84 83 85 84 71 64 57 45 36 27 21 15 20 25 32 40 51 62 72 74 72
86 83 79 78 72 64 59 62 63 63 65 66 66 67 67 68 71 72 77 79 80 83 82 83 82 73 65 54 47 37 30 21 16 16 23 29 36 43 51 61 63 78 78
86 85 82 78 72 64 63 62 62 65 65 65 66 66 66 69 70 72 75 76 79 81 82 82 79 65 56 47 39 30 25 16 16 20 27 33 40 49 54 63 69 74 82
88 84 79 78 71 66 66 65 63 63 62 64 64 65 66 68 70 72 73 75 78 79 79 80 76 61 48 40 33 26 20 15 18 23 32 37 44 53 63 69 72 72 85
86 81 78 76 70 67 65 65 64 63 62 63 64 65 64 67 69 72 73 75 77 77 77 77 69 57 41 33 28 21 16 14 20 28 38 45 51 63 73 79 74 71 89
81 76 75 73 70 67 66 66 64 62 62 63 64 62 65 67 70 71 72 74 76 73 74 72 63 51 36 27 25 17 15 15 23 30 41 52 59 71 81 84 89 91 94
80 77 76 71 68 66 67 64 65 63 62 64 62 62 67 68 70 71 70 73 73 71 71 67 58 45 32 23 21 15 16 20 28 37 45 55 62 76 83 89 96 100 103
78 76 74 69 67 66 65 66 66 66 64 62 61 64 67 68 68 71 69 71 68 69 68 62 53 42 28 19 18 15 18 26 33 42 47 60 66 79 86 88 93 99 104
70 73 72 70 66 65 65 66 68 67 63 60 63 66 67 66 69 69 70 69 66 66 66 58 50 38 26 17 16 17 22 31 36 45 54 64 75 83 88 91 91 97 102
69 69 63 68 63 66 67 69 69 65 61 62 66 65 66 66 70 68 70 66 64 63 63 52 49 34 23 16 14 19 25 35 41 48 59 73 79 82 86 89 92 92 81
61 61 62 62 65 66 68 68 66 61 62 65 64 65 65 67 67 69 66 64 60 61 61 54 45 31 19 16 16 22 28 38 46 53 64 74 81 89 87 88 93 93 92
57 57 57 64 65 63 68 67 61 62 64 63 63 63 63 64 66 66 65 58 59 61 61 51 41 27 18 15 18 25 33 41 50 57 67 78 85 89 93 89 88 91 93
49 51 62 63 64 66 61 60 61 62 63 61 60 60 61 64 66 63 59 55 56 62 57 45 36 23 16 16 20 29 38 46 56 63 73 83 89 90 94 95 96 95 96
48 52 56 61 60 63 65 64 60 62 61 59 60 57 59 64 66 59 53 56 56 58 52 40 34 21 16 17 23 32 43 50 58 68 78 89 91 93 96 97 95 95 100
38 40 43 50 56 57 58 61 61 58 53 56 58 58 60 67 62 54 53 54 58 55 46 35 29 20 18 19 27 36 48 56 63 72 80 90 91 94 95 95 94 93 95
35 37 39 41 42 46 50 51 51 51 54 56 56 58 63 63 58 55 53 56 57 50 37 31 27 19 20 22 30 40 51 61 66 74 82 90 93 92 94 95 95 98 98
39 37 39 43 43 44 47 51 52 52 52 54 57 58 60 60 55 55 50 55 55 41 31 27 24 21 22 26 34 43 50 61 69 75 83 89 93 94 95 94 97 101 100
32 32 31 29 31 35 39 41 44 47 48 52 55 58 60 54 51 45 49 55 45 33 27 26 24 22 25 30 39 48 56 68 74 81 88 91 94 98 99 100 101 101 98
36 34 38 37 37 39 39 42 42 44 49 53 54 54 54 49 42 45 53 50 34 29 26 24 24 24 29 34 43 52 62 72 80 82 90 91 97 97 95 98 100 102 99

GFSGL_250_spd_015.txt.gz
Wind_Speed
94 93 91 86 80 73 70 70 68 65 62 58 57 53 52 51 52 53 56 58 60 63 64 66 69 71 76 81 84 86 87 87 88 96 91 76 66 51 44 39 33 32 44
98 95 92 85 78 75 74 73 69 67 63 59 58 59 57 56 56 55 56 59 62 65 67 68 71 74 78 84 86 87 88 90 91 89 83 68 57 44 40 33 28 38 46
98 96 94 88 83 80 78 77 75 65 64 63 62 63 62 61 61 60 60 63 65 67 68 71 73 76 82 85 87 89 89 91 93 86 71 60 50 37 31 27 30 41 50
104 103 95 91 87 83 80 79 76 71 68 67 66 65 64 64 63 63 63 66 67 68 69 72 74 79 83 85 87 87 87 91 93 80 63 53 41 28 23 23 35 45 54
110 107 100 95 88 83 83 79 78 74 68 67 68 66 64 64 61 63 65 67 69 69 71 72 75 80 83 84 85 85 86 88 89 71 57 43 28 20 19 29 39 51 57
112 109 101 93 89 87 84 80 80 76 70 66 66 64 64 62 61 63 64 68 70 71 72 73 76 80 82 85 86 85 84 85 80 62 48 33 20 17 23 35 45 55 62
108 106 99 92 87 83 79 80 79 77 71 66 65 64 64 62 62 62 64 68 71 72 72 73 77 79 82 84 85 85 80 82 69 55 38 23 13 16 29 39 53 59 68
101 97 92 87 82 76 76 80 79 77 71 67 66 65 65 62 61 62 64 67 71 72 72 73 75 78 82 84 85 77 77 73 58 46 27 14 12 22 34 45 58 65 71
98 94 89 83 77 73 75 79 79 75 71 68 66 65 60 60 60 61 63 66 69 71 71 72 76 78 80 84 84 70 73 60 48 35 18 11 19 31 39 48 58 66 73
98 95 88 79 75 70 73 76 75 72 67 65 64 62 60 60 59 62 62 66 69 69 71 71 75 78 79 82 76 68 63 51 40 23 12 13 25 36 45 53 64 71 87
96 89 85 77 71 69 71 72 70 67 66 63 61 60 59 61 61 62 63 65 67 70 70 71 74 76 77 81 67 62 54 44 31 14 11 20 31 42 52 61 68 74 84
87 82 79 74 68 66 69 69 67 64 63 62 59 61 59 59 60 61 63 64 66 68 69 69 73 73 75 78 59 54 48 36 23 9 15 23 35 46 55 67 71 77 84
79 74 71 67 66 66 67 66 65 59 58 59 59 58 57 57 59 60 61 63 65 65 68 67 71 70 74 74 55 46 40 27 19 9 18 27 40 50 56 67 83 90 94
71 67 66 63 63 65 65 63 60 57 57 59 57 57 58 57 58 59 60 62 64 65 65 66 69 68 72 66 48 37 35 20 18 14 24 33 45 57 65 71 84 92 96
64 61 61 64 60 63 63 59 58 56 56 56 58 59 59 57 58 58 59 61 64 66 63 67 66 66 68 56 40 30 29 15 20 19 30 39 52 63 72 79 86 94 95
62 60 59 59 62 64 61 58 56 55 54 56 59 61 59 56 55 57 59 62 64 64 65 66 62 64 64 43 32 27 22 15 21 24 35 46 57 69 74 83 81 86 97
57 56 59 62 64 61 58 54 54 55 57 60 60 59 59 54 56 57 60 62 63 63 66 63 59 63 56 37 26 24 18 18 24 31 40 50 62 75 77 84 91 88 90
57 57 60 63 60 54 50 50 52 55 53 57 58 59 55 55 57 58 59 62 62 64 64 60 56 60 45 30 21 21 18 22 28 36 43 54 65 79 85 85 95 98 100
57 53 53 52 50 51 50 49 55 50 51 58 60 58 56 57 57 59 60 60 60 64 61 55 57 56 41 28 19 19 19 26 32 41 46 55 65 78 92 94 95 104 105
55 47 46 50 53 53 53 54 55 56 56 56 60 57 57 58 58 58 58 57 59 64 59 54 56 53 34 25 18 20 21 29 37 45 51 58 66 77 90 97 97 96 99
50 51 48 53 50 49 51 42 44 50 54 63 59 57 57 57 57 56 55 58 60 61 56 52 53 44 29 24 18 21 24 33 40 48 55 58 69 77 88 91 96 96 95
44 50 50 55 54 57 43 45 57 60 59 59 55 56 57 56 54 53 55 58 58 56 51 50 53 35 31 22 19 23 28 35 43 50 56 62 72 81 89 88 86 88 93
43 42 43 45 46 51 56 60 55 49 49 52 56 55 51 53 52 53 57 54 55 49 49 52 42 33 29 20 21 26 32 39 47 54 57 61 70 83 89 91 85 85 95
35 29 33 33 39 38 40 42 40 40 43 46 46 46 48 47 49 55 55 55 51 49 50 50 35 32 26 20 24 28 35 41 49 58 62 63 70 83 88 88 90 90 98
32 36 29 28 31 33 35 34 35 37 37 36 37 40 43 48 53 54 54 53 48 46 51 41 33 30 25 22 27 32 39 45 53 61 64 66 75 89 90 88 94 99 101
46 46 37 35 37 33 32 31 27 27 28 31 35 39 41 44 51 53 53 51 45 50 50 37 28 29 25 25 30 37 42 49 56 61 67 72 79 94 90 92 95 101 101

GFSGL_250_spd_021.txt.gz
Wind_Speed
122 119 117 117 112 106 101 99 92 88 83 79 75 70 68 67 64 63 63 62 62 61 61 60 61 62 66 69 70 70 73 72 72 74 75 77 78 78 80 86 90 92 92
129 120 115 115 115 114 110 106 100 95 90 83 79 74 73 69 66 65 65 66 63 62 65 66 66 66 68 69 70 72 71 71 73 75 75 77 80 81 86 87 90 92 80
132 132 123 117 115 112 109 104 98 93 89 85 78 75 73 71 68 69 70 69 66 66 68 69 70 69 69 70 72 74 71 71 73 73 77 80 80 80 84 87 88 75 67
116 123 120 123 118 114 108 106 101 96 91 85 78 75 73 74 72 74 73 72 70 70 70 72 73 72 73 72 73 73 72 70 71 73 79 79 77 80 81 84 76 59 54
109 115 117 112 118 120 111 107 103 99 96 91 85 80 77 77 77 76 77 75 75 74 73 73 75 75 73 72 72 74 73 71 72 75 80 76 78 79 81 71 57 48 39
105 108 113 111 106 111 115 114 115 113 107 97 88 83 81 79 80 79 79 76 77 77 77 75 75 73 71 71 73 74 73 70 72 76 76 75 80 80 72 56 43 38 33
105 105 107 108 105 103 101 100 99 105 107 97 87 83 81 78 81 81 79 78 79 78 78 77 73 68 67 69 73 75 73 69 72 72 73 75 78 73 56 46 35 29 24
97 102 105 105 105 100 96 93 90 94 99 98 90 84 81 82 86 83 81 83 81 79 75 72 69 66 66 69 72 73 71 69 71 69 72 70 71 58 44 35 28 18 14
89 95 102 102 103 99 95 96 88 89 89 91 91 86 85 87 88 85 83 81 77 73 71 68 64 64 66 66 69 70 70 68 68 69 68 65 58 44 34 25 14 10 14
76 86 93 94 96 97 95 94 89 85 82 80 78 78 80 82 81 80 75 70 69 67 64 60 61 62 62 63 66 68 68 66 65 68 63 58 42 33 22 13 4 12 23
69 77 84 87 86 86 90 90 86 82 79 73 70 69 70 71 73 68 64 63 63 62 58 59 58 60 60 61 64 64 63 61 63 63 57 44 32 22 9 7 13 29 36
65 72 77 81 79 78 81 83 78 73 72 68 66 64 64 65 66 62 59 59 61 58 56 56 56 57 58 59 61 60 58 54 58 54 48 34 23 13 7 15 26 36 49
60 68 72 74 72 74 73 71 73 69 68 64 63 61 62 63 60 55 57 58 57 55 54 53 53 54 56 57 57 56 51 51 55 46 38 26 14 5 14 23 34 55 67
53 62 66 66 66 68 64 69 66 64 60 59 59 58 60 57 55 56 57 56 54 53 53 51 52 53 53 54 54 52 48 47 46 39 28 17 7 13 25 32 53 70 82
46 53 57 63 65 65 67 64 63 66 59 58 57 60 59 56 56 58 56 54 53 51 50 51 50 50 50 51 52 50 46 43 37 31 19 10 13 22 35 52 68 81 91
38 47 51 58 64 66 66 62 66 57 58 56 58 54 55 56 57 55 54 52 50 51 50 48 47 48 49 48 51 50 42 37 31 23 8 14 23 44 60 68 79 87 89
41 42 49 57 61 63 66 64 52 55 55 54 53 56 56 55 53 54 51 50 51 51 48 46 48 48 48 48 50 46 37 33 24 13 7 28 66 79 82 85 84 86 90
40 44 48 53 60 65 59 57 59 51 47 50 58 55 54 53 51 49 50 52 51 50 45 46 47 49 47 49 47 41 34 27 17 6 18 53 87 93 91 93 95 94 93
39 43 48 55 55 54 57 56 53 51 52 53 52 50 50 49 48 51 51 49 50 46 44 46 47 46 47 47 44 36 32 22 15 8 28 86 90 94 96 98 103 99 99
41 48 51 52 52 54 52 47 47 50 49 49 50 49 47 48 48 47 48 49 48 45 47 46 47 45 45 44 39 33 28 17 15 15 35 92 92 98 100 101 106 104 100
49 51 48 46 43 45 45 45 41 47 51 49 46 46 46 45 46 48 47 47 47 45 46 46 45 43 44 41 36 30 25 17 19 18 35 94 100 108 109 99 105 107 98
57 61 59 50 44 39 41 46 48 45 38 42 44 44 42 43 45 47 48 47 45 46 47 48 48 47 47 42 34 28 24 19 21 23 37 80 111 112 106 104 101 103 96
60 64 59 58 55 55 52 50 45 41 42 41 40 41 42 43 45 49 45 47 47 50 49 50 47 48 48 44 37 29 25 22 23 27 38 64 117 116 109 111 108 105 99
60 62 59 55 55 47 38 38 40 39 39 38 40 42 45 46 45 45 47 47 46 46 48 47 47 47 43 41 37 34 28 27 27 33 41 55 92 125 117 110 111 107 102
56 53 55 52 48 40 37 40 41 42 43 43 45 42 40 42 45 45 43 39 41 44 42 42 43 44 42 43 45 38 31 31 32 39 45 52 70 109 121 106 119 112 104
42 43 41 40 43 40 35 33 34 37 39 41 41 38 34 31 32 35 39 41 40 38 40 40 40 45 47 47 45 37 30 33 38 44 49 52 64 80 120 119 105 118 108

GFSGL_250_spd_024.txt.gz
Wind_Speed
142 143 135 135 130 125 123 115 107 106 102 97 97 89 76 74 73 69 66 65 63 62 57 56 54 55 57 57 59 61 62 62 61 66 67 69 69 68 69 70 73 74 82
116 114 125 127 129 127 119 118 109 104 101 95 98 95 84 82 79 76 73 69 68 65 59 58 58 58 60 61 62 64 68 68 67 68 72 72 72 71 71 73 73 79 83
107 105 109 110 109 112 112 110 112 113 107 97 94 96 88 88 88 84 76 70 68 65 62 60 60 61 64 64 67 70 73 72 72 72 74 75 74 76 75 72 78 81 81
97 100 102 103 104 99 102 102 103 105 107 101 99 97 86 87 85 81 74 67 65 62 61 62 64 65 65 68 71 73 74 76 76 76 76 75 78 78 73 76 80 78 78
93 94 96 100 100 97 93 94 92 95 100 99 99 103 90 87 83 78 73 70 66 63 65 66 68 68 69 71 72 75 76 77 78 78 78 76 78 78 76 81 75 75 80
81 90 90 92 92 91 90 85 87 86 88 93 96 103 95 89 84 79 74 69 68 68 67 71 70 69 69 74 76 77 77 78 78 79 75 74 77 75 80 76 74 75 65
68 75 82 85 87 83 83 82 82 81 84 85 89 96 98 95 87 80 75 74 69 70 73 72 69 68 73 77 77 78 76 78 78 73 72 73 73 78 75 73 75 66 53
61 65 70 72 76 80 81 81 76 78 79 80 82 86 94 95 92 83 76 73 74 76 74 72 69 71 76 77 77 74 73 76 75 71 69 68 71 70 67 68 65 55 43
56 59 63 63 65 72 76 76 72 75 76 75 77 82 85 89 90 84 80 81 82 78 75 70 73 73 75 73 73 69 72 73 69 67 65 64 67 62 61 59 52 38 30
52 54 56 57 56 60 67 70 69 71 72 69 74 73 74 79 80 75 76 77 76 75 71 74 73 74 71 69 65 66 70 66 65 63 59 62 60 55 56 47 35 27 21
46 49 50 49 48 51 59 63 63 65 67 67 69 66 62 62 64 63 67 68 71 73 72 69 68 68 63 62 61 63 63 62 59 56 56 61 54 50 45 32 22 13 5
41 43 44 44 44 48 58 61 60 62 62 63 65 63 61 58 56 57 58 62 65 63 60 61 61 60 58 57 57 57 58 56 53 50 54 53 48 39 29 21 11 4 12
36 39 41 40 42 48 55 59 59 59 59 61 60 60 56 56 53 52 58 58 58 56 56 57 55 53 55 54 53 54 55 50 46 48 51 43 36 29 18 10 1 9 25
31 36 38 38 39 44 51 56 59 58 58 59 57 55 56 56 54 56 56 57 53 51 52 50 48 49 52 52 50 52 49 44 40 44 44 31 24 19 10 3 8 15 36
29 33 39 38 39 45 52 57 59 58 57 53 49 52 54 56 57 57 54 50 49 48 48 47 46 48 50 48 49 48 44 38 36 39 35 19 13 6 6 12 17 39 42
27 33 38 38 38 46 56 61 58 57 54 55 51 50 55 58 56 52 48 46 46 46 45 44 46 47 47 47 47 44 39 32 32 33 25 11 7 8 21 32 30 46 55
27 31 36 38 40 48 58 59 55 53 55 53 50 50 52 51 50 46 45 45 45 45 44 44 46 46 45 45 44 40 36 29 26 25 17 8 11 24 41 55 55 50 62
28 34 37 41 45 51 59 60 54 52 49 48 49 50 50 48 47 46 45 45 44 43 44 46 45 44 43 43 41 37 35 26 21 17 12 16 23 41 59 58 64 60 64
23 28 35 45 52 58 58 56 54 51 46 47 49 46 44 46 46 46 45 43 41 44 45 44 43 41 41 41 39 36 33 23 17 14 15 24 37 55 67 66 72 70 70
29 33 39 45 55 59 58 58 58 48 46 46 44 45 45 45 44 43 41 39 44 45 42 40 41 40 40 42 38 34 29 17 14 16 20 29 52 65 72 74 74 73 74
34 39 45 55 66 58 60 58 55 43 40 42 40 33 34 39 43 40 39 42 44 40 38 38 40 40 41 41 36 32 23 14 14 20 25 35 63 73 78 78 78 73 75
43 47 52 58 64 64 65 61 51 40 36 39 45 49 38 37 39 41 41 40 39 38 38 39 41 39 39 38 36 31 22 14 17 24 30 43 80 79 87 85 80 80 80
50 50 54 56 61 60 61 56 59 52 48 52 48 43 40 39 41 39 35 37 38 38 39 39 39 38 40 40 37 34 25 18 22 31 36 54 94 88 90 89 89 86 83
51 53 54 57 60 62 57 58 60 49 46 47 45 41 37 35 35 35 35 36 38 38 39 39 39 40 42 41 38 33 28 23 28 35 43 58 97 91 95 96 93 93 90
59 55 50 47 51 52 49 43 41 43 37 32 34 35 33 34 35 35 34 36 38 37 39 40 44 38 37 38 36 34 31 29 24 38 45 62 87 102 100 100 103 99 97
57 52 47 45 50 47 46 43 40 37 37 33 33 35 36 36 36 33 32 34 38 40 41 41 39 42 42 40 38 33 28 29 26 41 50 63 93 104 115 111 108 107 102

GFSGL_250_spd_027.txt.gz
Wind_Speed
120 125 130 131 132 136 133 132 131 124 120 116 114 110 107 102 98 86 76 76 77 71 65 63 60 58 56 56 58 58 56 54 53 57 60 62 65 67 67 69 70 70 69
110 111 113 116 119 114 117 120 118 117 108 107 114 116 110 106 100 93 84 77 77 75 70 66 64 60 60 61 62 61 60 56 54 58 63 67 70 72 73 78 78 76 72
98 98 99 102 102 101 100 100 102 99 98 96 100 112 116 109 106 97 87 78 77 75 71 72 68 64 64 63 63 62 61 59 56 60 66 69 73 75 79 81 80 77 75
91 91 91 92 92 90 91 90 91 88 85 85 93 96 107 110 108 104 92 81 79 75 72 71 71 69 66 65 62 61 59 60 60 63 68 72 75 80 83 83 80 77 77
82 83 85 87 87 85 85 83 81 78 79 76 85 90 94 104 102 107 93 87 84 78 73 71 68 66 65 63 61 60 60 61 63 68 70 74 78 83 84 85 78 78 83
71 74 75 75 76 77 80 79 79 76 75 72 75 79 84 89 95 107 93 91 89 81 73 70 67 66 64 63 62 62 61 62 68 70 73 76 81 83 86 80 78 80 74
67 65 64 66 62 64 65 68 73 73 73 74 67 73 78 84 95 96 91 88 92 84 77 71 67 65 65 65 62 60 62 66 70 71 74 77 81 85 80 79 78 72 75
64 59 57 56 52 52 54 59 61 65 68 67 64 66 74 83 93 88 84 87 89 82 79 73 69 68 67 65 62 61 64 68 70 70 74 78 81 79 75 74 68 73 72
55 49 48 46 43 43 46 50 53 58 61 61 62 65 70 78 83 81 84 87 82 80 76 73 68 65 65 64 64 64 68 69 69 72 75 76 74 72 71 63 68 63 58
44 40 38 37 37 36 40 44 49 52 55 55 60 64 70 74 75 78 83 80 78 75 72 72 69 66 67 66 66 68 69 67 69 72 71 70 67 68 58 60 56 51 41
35 35 33 33 32 33 38 41 44 45 51 56 59 64 67 68 72 73 71 70 68 67 70 71 70 68 67 67 69 68 67 66 67 65 65 62 64 55 56 51 46 33 24
29 30 26 28 27 31 36 38 41 46 55 59 61 63 64 65 64 60 58 60 62 66 66 68 68 68 66 66 66 64 62 62 59 58 56 58 54 51 46 39 27 25 17
23 27 22 24 25 29 34 38 40 48 57 61 61 62 60 62 59 55 54 55 59 61 63 63 64 63 60 59 58 56 53 52 51 49 50 49 46 45 35 24 24 10 3
22 22 17 22 24 27 33 39 46 52 58 60 60 60 57 55 54 51 48 49 53 55 57 56 55 55 51 49 50 46 46 45 43 43 41 38 40 35 24 21 12 16 27
23 17 16 21 24 28 36 43 49 54 60 60 61 60 54 54 53 51 51 52 51 51 50 50 50 47 43 42 41 41 40 38 38 35 34 31 32 24 15 19 18 40 51
20 15 16 23 26 31 42 50 57 60 56 60 61 59 58 57 53 51 49 49 51 49 47 46 44 41 37 38 38 36 35 35 31 28 28 26 20 8 7 12 20 49 56
16 15 20 24 29 40 49 55 59 60 63 62 59 60 58 55 53 52 52 54 50 47 45 41 39 36 35 36 33 32 32 30 25 25 23 20 11 14 11 9 13 47 56
14 17 22 27 37 48 53 58 61 62 61 58 57 58 54 52 52 54 55 51 46 45 40 38 37 35 34 34 32 30 29 26 21 25 18 15 12 32 28 24 22 43 56
11 19 25 32 44 51 56 61 67 61 59 57 55 55 52 51 50 49 48 46 45 41 39 37 36 34 33 32 30 27 27 22 18 24 16 12 16 39 41 39 34 42 50
15 18 25 38 47 51 54 60 60 57 56 60 53 43 41 44 46 48 49 47 45 41 38 37 35 32 30 30 29 27 25 19 17 22 17 11 25 42 49 46 42 42 46
25 27 35 41 48 55 63 65 66 64 59 58 57 59 50 48 50 49 45 43 42 40 38 36 31 30 29 29 29 27 25 18 18 23 21 14 33 51 54 48 48 47 52
31 37 43 49 53 59 66 68 67 61 57 53 49 48 46 46 45 44 44 43 39 36 34 30 29 29 28 29 30 28 24 18 17 26 24 18 35 58 62 62 57 53 56
34 45 53 60 64 71 73 70 64 58 56 52 45 45 44 44 45 44 43 40 36 33 31 31 30 30 29 29 30 29 26 21 20 28 28 24 35 56 67 65 66 62 59
38 47 62 70 70 68 65 57 58 57 50 47 46 47 41 43 42 41 37 33 31 31 31 31 29 29 30 30 30 31 28 26 23 26 30 29 34 60 66 70 73 68 65
48 61 64 67 67 63 61 57 51 45 48 47 48 42 39 34 33 32 32 31 31 31 31 29 29 32 30 30 31 31 31 27 25 30 35 37 38 60 67 78 70 78 75
48 56 59 61 59 62 59 54 51 44 39 37 38 37 34 30 30 30 30 29 31 31 30 30 30 30 31 34 33 34 34 31 28 31 35 44 44 56 75 78 84 74 81

GFSGL_250_spd_033.txt.gz
Wind_Speed
101 95 93 92 95 97 99 102 105 108 112 114 117 117 111 111 118 122 122 123 122 120 111 103 96 91 88 85 84 80 76 72 71 69 67 63 60 59 58 57 59 58 58
94 90 88 93 96 98 99 99 100 99 101 102 104 108 109 105 105 110 118 120 118 119 117 112 102 95 91 85 83 79 79 74 70 70 67 65 61 61 59 60 62 63 64
91 90 89 91 90 91 91 92 93 92 93 95 96 99 101 99 98 96 100 108 113 114 116 112 106 100 93 88 84 78 76 75 73 71 68 66 64 61 61 64 66 68 69
91 89 86 86 85 84 83 85 84 86 87 84 86 89 89 91 92 93 90 93 99 106 111 112 107 105 99 92 87 79 74 72 75 74 72 71 68 66 65 67 70 72 73
91 89 87 87 83 80 76 75 72 73 76 78 81 83 82 80 82 82 84 85 86 95 107 105 105 105 104 95 86 80 76 72 72 70 73 74 72 69 68 70 72 73 77
89 86 86 83 79 76 70 66 64 64 64 67 69 72 75 76 76 73 73 75 80 85 93 103 101 103 102 96 85 84 78 71 69 67 67 67 68 67 66 68 70 72 76
84 82 80 74 68 64 63 59 56 54 57 57 60 60 63 66 70 68 68 68 70 77 86 96 95 91 91 89 89 82 78 73 67 64 63 62 62 62 63 65 69 72 78
79 73 70 65 61 58 57 53 50 50 51 51 52 53 56 60 60 60 61 64 66 74 81 81 83 85 88 92 92 81 77 74 68 63 60 58 60 62 63 67 73 74 79
70 69 63 56 52 50 48 46 47 47 47 45 46 48 49 49 49 53 55 58 64 67 72 77 77 83 88 89 82 77 72 72 66 61 59 60 61 63 66 68 74 73 78
61 59 55 48 43 43 41 41 43 40 39 38 41 39 41 40 42 45 52 56 60 65 72 77 79 82 81 85 81 75 68 68 63 60 61 62 64 65 67 69 72 74 77
54 47 44 41 36 34 36 36 33 33 32 33 33 32 32 35 40 47 53 54 59 68 71 71 73 76 77 77 74 73 63 61 59 58 62 63 65 67 68 69 71 72 76
47 41 35 32 28 28 29 25 28 29 28 27 28 31 35 38 43 50 53 56 59 61 64 67 69 71 72 71 71 65 54 51 53 57 60 63 66 66 69 70 70 72 74
39 36 32 27 23 21 19 22 26 24 25 27 31 35 38 44 49 52 52 55 55 57 58 59 62 63 66 68 65 59 51 49 51 52 56 61 63 66 67 66 67 67 66
34 29 26 21 16 14 17 20 23 26 29 33 36 40 44 51 54 54 51 46 48 49 51 53 53 61 64 65 59 54 53 50 48 50 53 57 60 60 61 59 57 63 57
29 23 17 13 11 14 14 21 27 30 32 34 38 43 49 53 53 51 50 48 47 49 50 53 57 60 60 59 56 52 49 46 45 47 51 54 52 50 47 44 53 54 49
21 16 12 9 8 10 18 28 30 32 35 39 43 49 52 52 52 51 48 48 48 48 50 53 55 55 56 55 51 46 44 41 41 45 48 44 39 36 31 36 38 36 23
14 11 7 5 8 16 27 30 31 34 39 45 48 49 50 51 51 51 50 50 48 48 51 52 51 51 50 48 45 44 40 39 41 41 37 29 29 20 23 21 9 5 8
10 4 1 6 13 23 29 30 34 39 44 47 50 50 50 50 49 47 45 45 45 44 45 46 46 47 47 45 42 39 38 38 35 31 24 22 19 15 18 14 16 25 29
4 3 7 13 19 25 29 32 36 41 46 50 53 53 52 54 53 51 51 50 48 47 46 46 46 45 42 41 39 39 36 33 28 25 18 18 14 21 26 32 33 44 47
4 10 12 18 27 31 33 37 42 46 50 50 52 51 53 56 56 54 51 49 48 48 47 46 45 43 41 40 38 34 32 28 24 21 17 17 17 33 38 44 48 53 55
9 15 19 24 32 35 37 45 48 50 51 58 56 58 58 58 56 51 51 48 48 47 46 43 42 42 40 37 34 33 29 25 23 22 17 19 23 41 48 52 56 60 61
13 20 25 34 37 40 44 50 52 57 57 56 58 59 59 58 54 54 48 43 44 44 43 43 42 40 38 36 34 31 26 24 24 21 18 21 29 50 52 57 61 64 64
18 24 32 39 41 47 52 55 58 57 57 60 59 56 54 52 52 48 45 44 44 44 44 43 42 40 38 35 32 29 26 24 24 22 20 22 33 53 58 59 62 63 65
24 30 41 46 52 52 56 57 55 55 56 55 53 50 47 49 47 42 42 43 44 44 43 42 40 37 34 32 29 27 25 24 24 22 22 24 36 55 62 65 65 63 65
35 37 42 46 53 54 58 59 56 55 54 51 48 46 46 48 47 46 44 43 42 41 40 37 36 34 32 29 28 27 26 25 24 21 21 25 35 54 62 65 70 71 69
40 45 50 52 52 54 58 56 57 55 54 53 52 49 50 51 50 47 42 40 40 39 37 35 33 32 31 31 29 28 27 26 24 23 23 24 33 49 61 66 74 73 69

GFSGL_250_spd_039.txt.gz
Wind_Speed
134 133 129 123 121 119 116 114 111 109 106 102 98 95 92 91 91 90 90 90 90 90 93 101 101 103 102 100 98 96 97 98 96 95 91 86 81 77 74 71 69 67 65
133 128 124 125 123 119 116 111 108 104 100 96 94 90 88 86 86 87 89 87 88 87 88 89 95 96 99 102 100 97 97 95 96 98 94 88 83 79 75 75 72 70 67
131 128 126 123 119 116 113 108 100 98 95 91 88 86 84 82 84 85 87 88 88 86 86 84 88 90 89 95 99 101 97 95 94 96 96 92 87 79 77 76 75 72 71
130 128 123 119 115 112 108 102 94 88 84 81 79 78 77 76 77 80 81 84 85 87 82 79 85 86 85 88 94 97 98 94 91 92 94 93 89 83 79 77 77 75 73
128 122 116 114 109 108 103 94 85 76 72 67 68 68 68 66 66 69 73 76 80 84 77 76 76 80 85 85 87 92 96 95 90 86 91 88 89 87 83 81 75 74 74
122 113 110 105 103 102 95 83 72 65 62 58 60 60 61 58 59 60 62 67 72 75 73 70 72 71 79 85 84 87 91 96 86 85 89 87 87 92 89 83 77 74 74
113 110 104 99 96 92 82 71 64 58 54 54 52 51 52 53 53 53 55 55 59 62 65 63 68 67 73 81 82 85 89 92 85 83 83 86 85 87 89 80 78 76 74
106 101 98 95 89 80 72 67 60 55 51 49 45 44 44 47 46 45 44 46 50 51 58 57 62 62 68 77 79 82 85 86 84 81 79 86 83 80 78 83 79 76 76
98 95 92 87 78 70 66 62 56 50 45 40 38 34 36 35 35 35 36 39 43 47 47 48 56 57 62 72 73 77 80 80 82 79 83 82 79 73 75 75 76 78 78
93 90 85 77 70 66 62 56 50 45 41 35 30 26 28 29 29 30 32 33 35 36 36 41 51 53 57 67 71 74 75 76 78 74 72 71 73 73 70 69 72 74 77
88 84 76 70 65 59 53 46 42 38 33 28 23 21 20 21 23 23 25 26 26 30 34 40 47 49 55 64 68 70 70 71 69 69 69 69 67 63 63 67 68 71 74
82 75 68 64 57 50 40 36 32 27 21 16 12 12 10 10 13 17 19 21 23 27 32 37 44 49 52 59 62 63 59 54 57 61 63 63 58 61 62 62 65 68 71
75 68 62 55 47 38 32 28 23 19 15 10 7 4 3 7 9 13 16 20 24 28 31 36 44 45 46 49 48 44 44 51 57 57 52 52 56 56 57 62 64 65 69
65 60 53 46 36 31 27 22 18 14 7 5 3 6 8 10 13 17 19 22 25 28 32 34 36 39 37 37 39 43 48 50 48 50 51 49 51 52 53 56 56 60 59
58 50 42 34 29 25 20 17 11 7 8 10 11 11 13 16 18 19 21 24 26 30 33 35 36 37 37 39 43 46 46 47 46 45 44 44 44 46 44 42 45 49 55
48 39 33 29 24 19 15 13 12 16 16 15 16 17 18 20 22 24 25 29 32 35 38 39 38 39 42 44 44 43 42 42 43 42 39 36 33 30 30 32 38 48 55
38 30 27 23 17 16 19 19 16 19 19 20 22 25 28 29 32 34 36 38 40 40 42 41 43 44 45 46 45 44 43 42 40 35 30 29 28 23 22 25 36 44 45
29 22 19 16 17 19 21 23 24 26 28 29 34 36 39 41 42 41 42 43 45 48 49 51 51 49 48 48 46 45 42 39 37 37 34 26 17 12 17 26 31 35 28
19 17 16 15 19 24 28 33 35 37 39 42 44 46 48 50 50 49 49 51 53 53 54 54 52 50 50 49 47 46 46 45 40 34 28 21 14 15 15 17 24 15 5
12 13 13 21 27 30 35 38 40 41 44 47 50 53 56 58 57 57 55 56 56 55 54 54 53 52 51 52 51 49 46 41 35 32 26 18 12 6 7 16 14 4 18
10 12 21 29 33 36 41 43 44 48 53 54 55 57 60 61 60 60 59 59 58 56 56 55 55 54 52 51 49 44 40 37 35 29 23 17 10 5 3 5 7 25 30
11 21 28 36 41 43 44 47 49 54 57 60 59 62 62 62 62 61 60 60 61 60 58 57 56 53 50 47 44 42 39 35 31 27 23 19 14 10 12 16 28 44 46
19 28 33 39 43 49 53 52 51 56 56 62 64 64 64 64 64 63 62 61 59 58 56 54 52 50 47 44 42 39 36 33 29 26 25 24 18 21 23 32 41 49 66
26 34 37 45 50 49 55 55 54 57 61 63 66 65 64 63 63 59 55 54 56 54 51 49 48 46 44 42 39 35 34 31 28 27 29 28 26 29 34 43 46 54 67
33 39 43 48 50 52 59 59 58 59 61 62 62 60 60 62 61 53 52 52 52 51 49 47 46 44 42 38 35 32 31 31 29 30 33 34 32 39 42 44 46 59 66
37 42 43 50 54 56 59 55 53 54 54 59 58 55 58 59 58 54 50 48 48 48 47 44 43 41 38 35 33 31 30 32 30 33 38 41 37 40 45 47 45 57 67

GFSGL_250_spd_042.txt.gz
Wind_Speed
125 127 129 131 134 132 130 128 125 121 114 108 102 97 92 91 92 93 92 91 90 87 84 83 86 87 85 89 92 95 93 94 92 100 100 99 97 93 89 87 81 79 75
128 130 131 135 131 130 127 126 123 115 110 103 99 93 89 86 86 84 85 87 85 82 82 80 79 84 83 84 89 92 93 93 94 95 101 100 100 96 92 87 84 81 78
130 132 134 132 131 128 127 122 115 110 105 101 95 90 83 80 78 75 76 78 78 77 78 77 77 77 81 79 82 87 90 91 93 94 98 99 101 96 92 89 85 84 81
134 133 132 131 128 124 120 115 109 104 101 97 90 80 77 73 69 68 69 69 71 72 74 73 75 75 75 77 75 80 87 88 90 93 95 97 98 97 93 91 87 84 84
133 131 129 126 123 117 112 108 103 100 95 87 77 72 71 65 63 61 61 61 62 66 68 72 72 71 72 76 70 74 82 86 87 90 94 96 95 97 91 91 93 90 86
130 128 125 121 114 109 105 101 97 91 84 76 71 63 59 54 52 51 51 53 56 59 63 66 68 68 68 71 71 72 75 80 84 87 91 93 90 94 94 92 93 93 88
127 124 119 111 105 102 98 94 88 81 74 68 60 53 48 45 42 43 43 46 48 52 55 58 61 64 66 66 68 72 73 75 78 83 86 90 93 92 93 93 93 92 91
122 116 109 103 99 95 91 86 79 69 64 56 49 43 40 39 37 37 39 38 41 44 49 50 52 56 61 63 64 66 72 74 75 78 82 88 90 93 92 93 93 91 90
113 107 101 96 91 87 80 73 67 60 52 44 40 37 36 35 32 34 35 34 35 38 41 44 46 49 54 51 54 59 69 74 77 77 80 84 90 94 91 91 86 85 90
104 99 95 89 83 75 69 63 57 49 42 38 34 32 30 27 28 28 27 27 27 29 33 37 42 45 45 45 53 64 72 79 80 80 80 80 85 88 87 82 86 85 84
97 92 86 81 73 67 60 52 46 40 36 31 27 25 22 22 21 19 20 20 22 25 28 33 36 39 37 42 51 60 70 72 76 76 75 78 79 73 75 79 80 82 80
89 83 78 72 64 56 50 43 37 31 25 22 20 19 18 16 13 13 16 19 22 24 25 27 30 31 31 39 49 57 59 61 64 68 72 70 68 72 71 73 76 77 79
80 76 69 62 54 46 40 34 28 24 20 18 15 12 11 8 8 10 12 16 19 20 22 24 23 25 31 39 45 48 49 51 55 60 60 59 58 62 65 67 70 72 74
74 66 58 51 45 38 32 26 22 17 13 10 6 2 2 4 7 10 12 14 15 18 21 22 24 29 32 36 35 34 37 42 47 50 51 52 53 57 58 61 64 66 67
65 58 48 41 35 28 23 18 14 9 5 6 8 11 12 14 16 16 18 19 20 22 25 28 31 32 33 30 26 28 31 35 37 39 42 45 47 51 53 55 57 61 65
55 46 37 31 24 18 14 10 11 15 17 19 20 21 21 22 23 24 24 25 25 27 33 36 38 37 34 34 36 38 39 39 39 38 41 42 44 46 47 49 50 51 56
44 34 26 21 16 11 13 17 21 25 26 27 27 26 29 32 34 35 36 35 35 39 40 39 41 42 42 43 44 44 43 41 41 41 40 39 38 38 38 38 41 47 52
31 24 19 14 9 13 20 24 28 32 36 36 35 36 41 41 42 42 45 44 40 42 43 43 46 47 48 47 44 44 44 44 43 40 37 34 32 33 34 38 42 47 53
21 17 12 8 15 23 27 30 34 39 42 45 45 46 46 48 51 48 47 51 51 51 54 54 53 53 53 52 52 51 51 49 46 45 41 36 31 31 34 36 39 40 39
14 8 10 18 21 26 33 34 39 46 49 47 51 53 54 56 57 56 56 58 58 59 59 60 58 58 60 60 58 59 57 53 48 42 35 28 20 13 13 20 20 25 29
6 12 17 21 25 28 36 40 47 54 54 55 58 60 60 61 62 61 62 66 64 65 66 65 65 64 65 65 62 58 51 44 40 36 27 20 15 9 5 6 16 22 20
11 18 20 25 29 36 41 50 53 58 62 64 65 65 65 65 65 65 66 66 67 68 68 69 69 68 64 60 55 49 44 40 37 31 25 19 16 12 11 14 22 24 22
20 22 25 32 43 47 48 51 56 61 63 65 66 67 67 68 69 69 69 69 69 68 66 64 63 62 59 54 48 44 39 37 35 32 30 25 21 26 28 30 38 38 40
25 33 36 40 43 49 53 57 59 61 62 64 63 65 66 65 67 69 67 67 65 64 63 60 58 56 52 48 44 40 37 36 34 37 37 33 32 31 38 45 51 57 62
27 37 42 46 50 50 53 55 60 60 60 62 66 65 66 67 67 65 65 62 60 59 57 54 52 50 47 43 40 39 37 36 34 38 39 38 38 40 41 51 60 65 73
32 36 36 42 46 45 53 54 58 60 61 59 55 60 62 63 65 63 61 58 56 54 51 50 49 46 43 40 39 38 37 35 34 38 38 40 42 43 47 52 58 65 71

GFSGL_250_spd_045.txt.gz
Wind_Speed
118 118 120 125 128 133 135 135 134 132 128 125 121 117 110 105 101 96 93 89 89 90 89 90 90 89 89 91 87 86 87 86 85 96 98 98 94 96 96 94 92 89 88
118 122 126 130 134 135 134 135 133 128 126 122 115 109 104 98 95 91 87 87 85 86 85 85 84 85 84 88 89 84 84 84 86 93 97 101 98 98 99 97 94 91 89
124 128 132 134 135 134 135 132 129 126 121 115 109 104 100 94 89 88 84 81 79 78 77 74 75 80 77 80 85 83 83 82 84 90 96 101 100 97 99 98 96 93 91
130 132 133 133 135 136 131 128 125 119 114 109 104 99 95 91 86 81 76 74 73 72 70 69 68 71 69 73 79 81 80 82 84 86 95 98 100 96 98 99 98 96 95
131 131 132 136 136 131 128 124 117 112 106 103 98 95 91 86 79 72 71 69 67 67 66 63 62 62 61 65 72 75 76 79 84 85 91 96 99 98 98 101 100 98 98
129 133 135 135 129 127 122 117 112 106 101 96 92 87 81 75 71 67 66 62 60 60 60 59 57 55 56 60 66 72 72 74 82 86 90 93 97 99 100 102 100 99 98
133 135 133 128 126 119 115 110 104 98 95 88 81 77 70 66 62 58 54 53 52 53 52 53 51 50 51 55 62 67 67 70 78 84 87 90 95 98 101 100 101 98 99
132 130 128 125 118 112 107 101 95 90 83 76 70 64 58 55 52 50 48 46 43 43 44 45 44 45 46 50 56 61 63 68 75 79 83 88 92 95 99 101 102 99 99
126 126 123 116 108 102 96 92 86 77 71 65 59 54 51 48 46 44 42 39 36 35 36 37 36 40 42 45 49 55 59 65 71 75 80 85 88 91 96 100 101 96 98
122 118 111 105 98 90 87 81 72 66 60 56 53 49 45 43 39 36 33 30 29 27 27 31 32 34 38 43 47 52 58 65 68 71 77 81 84 88 91 96 99 98 92
112 105 99 94 88 83 76 69 64 58 53 48 44 41 38 35 33 28 25 24 23 24 24 25 27 31 35 38 40 46 57 65 67 70 74 77 80 83 86 91 94 93 91
100 92 88 84 81 73 65 61 56 50 44 39 35 32 28 26 25 23 20 18 16 16 19 21 23 24 27 30 38 45 52 60 66 69 72 73 75 79 82 89 92 90 89
86 83 78 75 68 62 57 52 47 41 35 32 28 24 20 18 17 15 12 10 9 9 10 13 16 19 23 27 32 38 45 55 64 67 70 74 74 76 81 84 84 85 89
76 72 69 63 57 53 46 42 37 31 26 22 19 16 13 10 7 4 2 3 4 6 8 11 15 19 21 22 28 36 42 48 56 58 58 65 70 69 68 70 76 82 85
66 63 58 52 47 41 36 29 23 18 14 12 10 9 8 9 9 10 10 10 12 15 17 20 23 24 25 27 29 31 32 36 40 43 46 53 58 56 57 61 66 74 78
57 53 48 42 36 30 25 17 13 9 10 11 11 13 15 16 18 20 21 22 23 26 26 28 29 32 30 30 30 31 32 32 33 36 39 45 49 50 51 54 58 62 67
48 43 37 31 28 22 15 9 6 8 13 15 17 18 23 25 27 27 26 28 32 35 36 37 37 40 40 37 37 40 41 41 40 41 42 44 46 46 46 48 51 56 59
37 31 28 24 18 11 7 4 9 16 18 21 23 26 32 36 36 37 37 38 37 39 40 44 47 50 49 49 49 48 47 45 44 43 42 40 39 40 41 43 47 50 53
26 22 18 14 8 6 6 11 18 19 27 29 32 36 40 44 47 45 47 50 50 49 48 52 53 52 52 51 51 50 49 47 44 41 41 39 38 39 40 42 44 47 48
15 13 7 7 6 7 10 20 24 30 34 34 40 45 46 50 54 54 54 55 55 56 55 56 59 59 60 59 59 57 55 53 50 46 43 40 39 41 42 43 44 43 44
7 2 7 8 9 11 20 26 32 39 43 46 48 51 53 56 59 61 61 61 62 65 64 64 66 65 64 63 61 57 53 48 44 39 35 33 31 30 28 29 30 29 28
6 8 13 10 14 26 33 37 41 44 49 52 56 58 62 64 66 67 67 67 67 66 65 66 65 64 63 62 59 54 48 43 36 30 25 22 21 23 24 23 22 22 22
13 18 21 26 30 34 41 45 48 51 56 61 60 61 61 64 67 68 68 67 66 66 65 65 63 58 55 54 53 51 48 46 37 30 25 24 20 21 20 22 21 20 21
18 27 33 37 36 42 45 51 56 60 60 62 61 62 63 64 65 66 66 63 61 61 59 58 57 55 54 53 51 50 49 45 39 36 37 35 33 33 34 31 30 30 32
31 34 36 39 41 46 50 54 58 58 57 57 58 56 58 63 64 62 60 58 56 56 54 52 51 51 50 50 48 46 47 50 46 45 46 44 43 41 39 43 41 40 38
36 43 41 41 46 48 47 56 58 56 56 55 55 58 58 58 58 56 55 56 52 49 48 47 47 47 49 49 45 45 48 50 53 50 42 44 42 43 41 41 43 42 44

GFSGL_250_spd_048.txt.gz
Wind_Speed
109 114 118 119 120 120 123 126 129 132 133 129 130 133 129 125 123 120 114 109 104 99 95 92 90 89 88 83 85 84 82 82 80 81 83 89 94 95 96 93 92 91 88
116 117 118 119 122 126 129 133 135 131 128 133 133 128 125 122 117 112 105 101 96 94 90 87 86 84 82 80 81 83 82 81 81 83 84 87 92 95 96 99 100 98 93
116 118 121 125 128 131 134 133 128 133 134 128 124 123 119 115 110 105 100 95 90 88 84 82 78 77 75 75 75 76 80 80 82 83 87 88 90 95 104 106 94 96 97
121 124 128 130 132 130 127 132 136 133 126 124 121 114 109 104 101 96 92 87 83 79 76 72 71 69 67 69 67 66 72 77 76 83 87 88 92 100 109 96 92 91 97
126 128 130 128 125 128 134 135 130 126 123 117 111 105 99 93 91 87 83 77 73 71 68 65 63 61 61 63 60 62 66 69 70 78 85 89 92 101 105 101 98 98 97
126 124 123 127 132 135 133 129 126 122 114 107 102 95 90 85 80 74 69 64 62 59 56 54 53 53 53 55 51 60 60 61 64 74 82 91 93 97 102 99 103 106 97
123 126 130 132 131 128 127 125 119 113 106 98 92 87 81 74 68 63 59 54 51 49 47 46 46 45 45 43 48 50 48 58 59 68 77 87 91 92 96 96 104 101 99
128 131 130 126 125 124 121 115 109 105 98 89 83 75 68 62 57 53 49 45 43 42 41 41 38 38 38 39 40 46 49 52 58 66 76 85 88 88 90 95 100 102 102
128 126 124 123 118 112 107 104 99 94 88 81 70 64 59 53 49 45 41 38 36 35 35 35 35 36 34 35 39 43 46 50 56 65 73 81 84 85 87 89 96 100 100
123 120 114 110 104 101 96 92 87 82 76 68 61 55 52 47 42 38 34 33 31 30 30 29 28 31 30 32 38 40 45 49 55 63 73 81 82 82 83 84 91 96 98
111 106 101 98 94 89 84 80 76 70 64 59 56 50 43 38 34 32 29 26 23 21 21 22 21 24 28 32 34 39 44 47 55 64 72 74 74 78 79 79 84 92 95
98 94 91 87 81 76 73 69 63 57 56 53 49 42 36 32 28 24 21 18 15 12 11 13 14 18 22 25 30 33 37 46 53 61 66 68 71 75 77 78 81 86 91
85 82 79 75 69 66 63 57 52 51 49 45 39 35 30 26 24 20 16 11 7 5 4 5 9 13 19 23 25 29 36 44 51 59 63 66 68 70 71 73 74 79 85
73 70 67 63 60 56 51 47 45 44 40 35 31 28 25 21 19 17 12 8 5 3 5 7 8 12 15 21 27 31 37 44 50 56 58 60 61 62 65 67 69 73 81
62 60 55 53 50 46 42 42 40 36 30 25 23 22 19 16 13 12 10 9 6 6 9 12 15 19 21 23 24 27 33 39 45 50 54 56 57 58 59 61 63 67 74
54 49 47 43 39 37 35 34 29 24 21 20 19 16 13 14 13 13 15 15 14 14 15 15 16 19 22 25 26 27 28 31 36 41 44 47 52 54 53 54 56 62 69
43 40 38 34 30 28 27 24 20 18 19 18 16 16 18 20 21 23 23 25 25 26 26 27 28 26 27 29 30 30 31 31 32 34 37 43 47 47 47 48 50 55 60
35 32 28 24 23 21 21 16 15 21 16 17 20 22 26 27 27 28 30 31 32 34 34 37 39 40 39 36 36 36 35 36 37 38 38 41 43 43 43 43 45 49 56
25 21 18 17 17 17 12 13 20 20 22 24 25 28 33 33 33 32 33 36 38 41 42 42 43 44 43 41 42 44 43 42 41 41 42 42 43 44 42 41 42 44 48
15 11 12 14 15 11 13 20 26 28 28 32 33 39 41 42 41 43 44 42 42 45 47 49 50 51 50 47 46 44 44 43 44 45 45 44 43 42 40 39 38 39 41
6 8 10 16 11 14 21 28 32 34 38 39 43 46 48 51 52 54 54 54 51 50 51 52 51 50 49 48 47 47 47 47 45 43 41 40 38 38 38 38 38 38 39
6 9 12 15 12 18 27 32 36 38 40 42 44 46 47 49 53 55 56 55 51 48 50 48 47 45 44 43 41 40 39 37 34 32 29 29 30 30 30 31 31 31 31
12 13 19 20 22 26 35 38 39 43 45 48 47 48 50 53 54 55 54 52 51 50 50 49 48 45 42 44 42 40 39 38 34 33 29 27 27 27 27 26 24 23 22
18 18 23 25 29 35 38 43 45 47 49 49 51 53 52 51 53 54 56 54 52 50 43 44 47 48 48 47 43 42 39 37 32 29 28 24 24 25 26 25 23 23 23
24 26 26 29 36 39 44 46 45 46 48 48 46 49 52 50 51 50 49 49 49 48 45 47 47 51 51 47 48 45 45 44 41 38 34 32 30 31 30 29 29 30 31
29 30 32 36 41 42 43 44 43 46 48 48 45 47 49 49 47 46 45 45 43 44 45 43 47 51 57 55 50 51 49 46 46 44 42 40 40 40 39 38 38 39 41

GFSGL_250_spd_051.txt.gz
Wind_Speed
95 98 102 106 109 112 115 118 120 123 125 126 126 125 124 125 129 127 124 119 118 116 112 110 104 102 97 95 93 87 82 80 79 81 77 77 77 80 87 85 89 96 99
101 104 107 111 113 117 120 123 124 124 124 123 124 126 128 126 122 121 120 116 111 106 101 98 94 92 88 87 85 83 78 79 78 79 79 76 77 78 83 87 97 107 91
106 109 112 115 118 120 121 122 121 122 123 125 127 125 123 120 115 112 109 104 100 96 92 88 85 84 81 80 78 78 76 77 76 74 78 76 75 78 82 88 95 102 95
112 114 116 118 119 120 120 120 122 125 125 123 123 120 118 113 105 101 97 93 88 84 80 77 74 73 70 71 69 71 68 71 73 74 78 76 72 78 83 87 91 94 99
115 116 117 117 118 119 124 126 127 125 123 119 115 113 110 104 95 88 85 80 75 71 67 64 64 63 61 62 60 63 63 66 68 66 72 76 75 78 84 89 94 99 105
114 115 118 120 124 127 126 125 123 119 115 111 108 103 99 92 85 78 73 69 66 62 58 55 55 55 54 52 54 57 58 63 64 65 69 74 77 81 87 88 96 99 106
118 120 123 125 124 123 122 117 113 111 105 102 97 92 87 81 73 69 65 58 53 50 48 46 46 46 45 44 47 51 55 53 59 62 65 70 73 83 87 91 97 95 103
123 122 121 119 117 115 112 108 103 98 96 92 86 81 76 73 64 56 55 50 46 42 40 38 37 37 37 39 43 45 46 51 54 52 54 62 73 78 86 92 98 99 105
118 116 113 111 107 103 100 95 92 91 86 79 76 71 67 62 55 50 47 45 40 35 33 32 32 31 32 35 38 39 43 40 39 49 58 64 72 76 85 92 98 101 102
109 107 104 102 99 92 89 87 84 79 73 69 65 60 55 55 51 43 40 35 35 30 28 27 27 27 28 32 34 33 40 40 43 47 52 61 70 73 80 89 95 99 101
103 99 94 89 85 82 80 76 72 66 63 58 55 50 50 49 44 39 36 30 26 24 24 23 23 24 26 28 27 29 34 31 37 45 52 61 66 66 73 86 92 96 96
93 87 82 77 75 72 70 65 60 56 52 48 47 46 45 42 38 35 29 24 20 16 15 15 17 19 19 21 20 23 28 33 39 46 51 56 59 60 69 81 87 91 92
78 72 70 68 65 62 57 52 49 45 41 41 41 40 37 35 33 31 26 21 17 14 11 9 10 12 14 16 18 22 27 33 38 44 47 49 52 57 66 74 82 87 85
67 65 61 57 55 47 46 42 37 35 36 35 34 34 34 32 29 28 24 20 15 12 10 7 5 9 11 13 18 23 27 30 34 37 41 42 47 54 62 68 76 81 81
58 53 49 45 41 38 33 30 28 29 28 27 27 27 27 26 27 24 19 16 12 9 7 3 2 7 12 14 16 19 21 24 28 32 37 42 47 54 59 64 70 73 77
47 41 37 35 31 26 23 22 23 21 21 21 23 24 27 28 26 22 20 16 12 10 10 8 5 4 8 12 14 17 20 23 26 30 35 39 45 49 53 57 61 65 68
34 31 30 24 20 18 19 19 16 20 19 20 23 25 25 27 25 24 23 20 19 17 16 15 13 12 11 10 13 15 17 21 28 31 35 39 42 45 48 51 54 57 61
27 25 19 15 13 16 15 12 19 19 19 21 24 24 25 25 25 24 24 22 23 23 21 22 22 21 20 18 19 20 21 25 29 32 35 38 41 43 44 47 50 53 53
20 14 9 8 13 12 9 14 20 22 25 29 28 27 28 29 29 25 25 26 27 26 27 27 29 28 27 27 29 29 29 31 33 34 34 34 37 39 39 40 42 44 47
9 4 6 12 12 11 11 15 18 21 25 25 30 33 30 27 26 26 25 27 28 29 32 32 32 31 30 33 33 34 37 35 34 33 34 36 35 36 37 38 40 43 45
3 7 12 15 17 19 21 22 24 30 30 29 28 28 30 32 29 29 28 30 32 34 35 34 33 31 31 32 34 36 38 37 35 33 34 34 34 33 34 35 35 35 36
9 14 16 20 22 25 27 25 25 30 32 32 31 32 31 31 32 32 34 35 36 35 37 38 37 36 35 34 33 33 34 34 35 37 36 35 34 33 32 33 34 34 34
16 18 20 21 25 26 28 27 27 27 30 34 35 34 32 30 31 33 34 35 34 33 36 39 39 36 35 34 32 32 31 29 30 30 30 31 30 29 30 31 31 32 32
22 23 24 25 27 28 29 27 28 32 38 36 31 31 34 36 34 31 29 30 34 34 35 40 38 37 35 33 32 31 31 32 31 31 30 30 29 29 28 29 29 28 27
27 26 27 28 30 31 34 34 38 42 40 38 35 38 38 35 35 36 36 39 41 44 48 46 44 42 42 40 36 32 30 28 33 34 33 32 32 31 31 30 29 28 26
29 29 28 29 33 35 38 39 40 40 40 39 38 35 33 32 32 37 39 41 42 45 49 50 49 46 44 43 42 38 37 35 36 32 30 29 30 30 29 29 28 27 26

GFSGL_250_spd_054.txt.gz
Wind_Speed
99 101 103 106 108 110 111 113 114 115 117 118 120 120 121 121 121 121 123 123 122 121 121 119 115 115 117 117 113 110 107 106 97 95 97 101 97 89 87 87 88 88 90
105 107 109 110 110 111 113 114 116 118 119 118 117 117 118 120 120 119 118 117 115 113 112 108 102 102 103 103 102 98 96 94 91 87 91 92 89 83 81 82 84 87 87
108 110 112 113 114 115 116 115 115 115 116 118 119 119 117 116 116 114 111 109 106 101 99 93 90 91 90 89 88 84 84 85 83 80 81 85 82 77 75 78 83 85 87
115 116 115 114 113 112 113 115 117 119 119 117 115 114 112 110 109 106 104 98 94 91 87 84 80 80 79 79 77 76 76 78 77 75 77 81 78 74 71 75 78 84 85
112 112 114 116 118 119 119 119 118 118 114 112 109 109 106 104 102 97 93 89 85 80 78 76 70 68 67 66 66 65 67 70 70 70 74 79 76 71 70 75 79 82 85
118 119 119 120 119 119 118 115 112 109 108 105 102 100 97 94 92 87 82 78 74 68 70 69 62 61 59 59 57 57 60 60 61 65 68 72 76 73 71 75 80 81 83
119 120 120 118 115 113 112 109 105 102 99 96 94 92 88 86 82 77 73 67 64 59 60 58 54 52 52 52 51 51 50 54 55 58 60 66 69 70 72 76 80 84 85
118 117 115 113 111 108 105 100 95 92 91 87 84 81 78 76 72 67 63 59 54 51 52 49 47 46 45 45 44 45 47 46 49 51 58 62 66 68 68 76 82 84 88
114 113 111 108 105 100 92 88 87 84 81 77 74 72 69 66 62 57 52 50 47 46 45 44 41 40 40 41 41 41 40 46 48 45 49 56 59 62 64 71 81 86 89
107 106 103 100 90 85 83 80 77 74 70 67 65 61 57 53 51 48 45 44 42 41 39 37 36 34 35 36 39 39 41 44 41 43 48 52 58 60 63 70 81 86 91
99 97 92 84 79 76 74 71 66 64 60 57 52 49 47 46 44 41 37 37 35 34 33 30 30 31 31 31 34 36 36 36 35 37 43 47 52 54 59 71 83 90 94
89 83 79 74 70 68 64 59 55 52 48 43 41 41 40 37 36 36 34 31 29 28 25 24 24 25 23 23 24 27 31 33 36 41 45 50 55 61 67 73 80 90 95
78 73 70 66 61 56 51 48 45 40 36 34 34 33 34 33 31 30 29 27 25 23 20 18 17 17 15 15 18 24 30 32 33 38 44 47 51 60 65 72 80 89 95
67 64 60 56 50 43 40 37 33 29 27 27 28 29 30 31 32 31 29 27 25 23 18 13 12 12 10 12 16 21 24 23 29 36 41 45 46 51 59 64 74 81 85
58 53 48 43 37 33 30 26 21 21 21 23 24 27 29 31 32 34 34 31 26 23 18 13 10 7 5 6 11 13 16 18 23 29 35 39 43 49 55 60 65 70 75
48 41 36 31 28 23 19 15 15 15 17 18 21 25 28 31 34 34 34 32 27 22 17 12 11 9 6 4 7 11 15 19 22 26 30 32 36 41 47 52 57 63 68
37 30 26 22 18 14 11 11 11 10 12 16 20 23 27 32 32 31 32 33 30 26 20 16 14 13 12 13 12 14 15 19 22 24 26 28 32 36 41 46 51 56 60
25 21 17 13 10 8 10 10 10 11 14 15 19 24 27 29 31 32 34 35 34 30 26 23 19 17 17 19 20 21 22 24 25 26 27 29 31 35 39 43 47 51 55
16 13 8 5 7 8 8 11 12 12 13 17 22 25 27 27 28 29 32 34 35 37 36 31 26 21 22 23 26 27 28 29 30 31 32 33 35 37 40 44 47 49 51
8 2 2 6 7 6 9 11 12 11 13 18 24 27 27 27 28 30 32 35 36 36 37 36 32 28 28 29 30 31 32 34 33 33 35 36 39 40 41 43 46 48 50
5 7 10 10 10 10 10 12 13 13 16 23 27 28 28 29 31 32 32 32 33 35 36 36 35 33 31 31 34 33 33 34 36 36 37 38 38 38 38 39 41 43 45
12 12 14 14 12 13 11 13 13 15 20 26 26 26 26 27 27 28 31 33 34 33 33 34 35 35 33 33 34 36 38 37 36 35 34 35 37 37 39 40 41 42 43
18 17 17 14 16 15 13 17 19 21 23 25 28 28 26 25 26 27 27 27 29 29 31 32 33 34 35 35 34 35 35 36 37 37 36 36 36 36 36 37 38 39 40
23 21 19 19 18 18 18 24 23 21 24 27 31 28 28 30 33 32 33 39 37 36 32 30 33 33 32 34 35 34 34 35 34 33 32 32 32 33 32 33 34 35 37
26 24 21 22 21 24 28 28 23 26 29 30 31 29 33 33 31 32 39 42 41 39 39 38 31 31 33 32 34 35 33 31 31 32 32 31 30 30 29 28 30 32 32
29 26 26 26 27 31 31 30 27 28 24 25 30 28 29 31 31 32 33 37 38 40 39 41 39 33 32 35 33 34 34 33 33 32 31 30 28 28 28 27 27 26 26

GFSGL_250_spd_057.txt.gz
Wind_Speed
99 102 105 107 109 112 115 117 118 117 117 117 118 118 118 118 119 119 119 119 118 117 118 118 118 119 118 117 118 119 119 117 112 106 114 115 115 118 117 112 110 109 108
104 107 111 115 118 119 119 118 117 118 119 119 119 118 116 114 113 113 112 110 109 108 108 109 109 109 108 108 107 107 108 106 104 98 104 109 109 113 112 110 107 105 105
112 115 118 120 120 118 118 120 121 121 119 117 113 110 109 107 106 105 104 102 101 101 101 99 97 95 95 95 94 93 96 97 94 88 91 97 98 100 102 102 100 99 99
118 119 120 119 120 122 123 121 119 116 113 111 109 106 103 100 98 97 96 95 93 90 89 88 86 86 85 84 82 85 85 84 81 76 80 82 85 92 92 91 92 93 95
120 120 121 125 125 122 119 116 116 114 110 106 102 101 99 95 92 90 88 85 83 81 81 80 78 77 75 72 76 76 74 72 68 67 69 71 77 83 82 84 86 90 89
121 124 125 123 120 117 116 113 112 108 105 102 101 96 92 88 85 82 80 77 76 74 73 71 70 69 63 65 67 67 65 61 59 57 61 64 70 74 78 78 78 80 81
123 122 120 118 115 113 110 107 103 101 99 96 90 86 82 80 77 74 72 70 69 68 65 63 63 60 59 60 58 56 53 51 51 49 51 56 65 68 70 70 73 74 76
119 117 116 113 110 106 105 100 97 93 90 84 79 76 73 70 68 67 65 64 63 60 56 57 55 53 54 52 51 49 45 43 43 46 49 54 58 60 61 66 72 74 74
116 113 111 109 105 100 96 91 88 85 79 73 69 64 63 62 61 60 58 56 54 52 50 49 47 46 46 46 44 41 39 35 41 38 41 46 48 51 55 59 65 71 75
110 109 107 100 92 89 86 82 78 72 67 62 58 55 54 54 53 50 50 51 47 44 42 42 40 39 39 36 35 33 32 30 34 34 39 42 46 48 49 54 64 74 77
105 100 93 86 83 81 76 71 64 60 54 51 49 48 47 44 44 42 41 41 39 39 36 33 33 32 30 28 28 26 26 28 31 31 34 37 43 46 49 55 63 73 77
92 86 82 78 75 70 64 59 52 47 46 42 41 38 37 36 36 37 38 36 33 30 27 24 25 25 23 22 22 21 24 26 28 29 31 37 41 45 49 55 62 73 77
82 76 73 70 64 57 51 47 43 39 36 34 31 30 30 32 36 39 34 32 28 24 21 18 18 17 17 16 16 18 21 23 26 31 34 38 40 42 45 56 64 72 77
73 67 63 59 51 45 40 37 34 32 30 27 26 26 28 31 37 36 34 34 31 27 20 16 12 10 12 10 12 15 18 21 25 30 36 38 40 42 48 56 65 72 76
61 56 52 44 41 34 32 27 27 25 24 23 24 27 30 31 33 32 35 36 33 28 22 17 12 7 7 3 6 9 12 15 18 25 30 30 32 38 47 57 63 70 76
51 44 38 34 29 26 22 21 19 20 20 20 22 26 29 29 32 33 35 36 33 29 24 18 13 8 4 1 3 9 13 18 22 27 29 31 34 37 42 52 59 64 72
39 32 28 23 19 16 12 13 14 16 18 18 24 26 29 30 33 33 35 35 34 31 26 20 15 8 3 2 7 8 14 19 21 22 22 24 25 32 38 46 53 59 67
27 22 17 13 9 5 7 9 11 14 18 20 22 25 28 30 32 34 33 33 35 34 30 25 18 13 8 6 11 11 12 16 19 20 22 24 26 30 34 37 44 51 57
17 13 11 6 3 3 7 10 12 15 17 20 22 24 26 28 30 31 31 31 32 36 33 28 23 19 17 14 13 16 16 17 17 19 22 25 27 27 29 32 35 41 46
9 10 7 2 2 7 11 12 14 16 18 21 22 24 25 27 30 29 28 30 31 35 34 29 29 28 27 23 21 23 24 25 26 26 26 26 28 30 32 34 37 41 46
9 8 5 5 9 13 13 13 15 16 20 21 23 24 26 28 27 29 29 29 29 31 35 32 30 33 34 29 27 29 31 29 29 28 28 29 30 32 34 35 37 40 43
10 9 8 10 14 14 14 15 15 16 21 23 24 25 29 29 28 25 25 26 27 30 33 35 32 31 34 35 32 35 35 33 32 32 32 31 32 33 35 38 41 44 48
13 12 12 15 19 16 16 15 16 20 23 21 27 27 28 27 30 30 25 25 30 29 31 36 37 35 33 34 35 35 35 35 36 35 35 36 37 38 40 41 45 48 52
16 17 17 22 20 20 17 17 21 22 24 26 25 26 29 32 35 36 34 32 32 32 31 32 39 40 38 36 35 35 36 35 34 33 34 34 36 39 40 41 43 46 48
21 23 23 21 21 21 18 23 22 23 22 22 22 28 31 34 36 38 37 37 35 32 32 33 33 36 39 40 38 38 37 37 36 34 34 33 32 33 34 36 37 38 40
26 27 25 25 25 22 23 22 21 21 22 21 23 29 31 32 34 36 35 36 39 34 30 33 35 34 36 36 37 38 39 39 38 36 34 33 31 29 29 30 31 32 32

GFSGL_250_spd_060.txt.gz
Wind_Speed
100 102 104 107 109 111 112 115 119 121 123 124 122 121 123 124 121 118 116 114 112 109 108 107 107 109 110 111 112 113 113 112 111 112 113 116 118 120 119 115 112 110 110
105 108 110 112 113 116 120 123 125 125 123 124 125 121 119 116 113 111 107 104 100 97 96 97 99 102 103 104 105 105 104 105 103 104 105 108 111 113 115 114 113 112 114
111 112 115 118 121 124 125 125 124 125 125 121 120 116 112 109 105 102 96 91 90 90 89 88 88 89 88 90 91 91 94 95 96 96 97 99 101 105 108 111 109 108 110
116 119 122 125 125 125 125 127 125 120 118 113 109 107 106 101 97 92 89 87 85 83 82 81 82 81 81 81 82 82 83 83 84 84 85 86 90 95 94 100 103 104 105
122 124 124 125 127 127 122 121 118 112 108 105 104 100 96 93 90 87 85 81 79 79 78 77 76 73 72 71 71 73 73 74 74 74 77 77 77 79 81 89 94 94 93
124 126 126 123 120 119 115 111 107 104 102 100 97 93 90 87 83 80 77 75 72 71 70 69 68 65 63 63 64 64 65 65 66 68 66 64 65 66 71 79 83 81 81
123 120 119 116 112 109 105 102 100 98 97 95 90 86 82 79 76 74 69 66 65 64 63 62 61 60 61 61 60 58 56 57 58 56 54 55 57 60 63 69 72 74 77
116 115 113 110 107 103 99 98 95 91 89 85 81 77 73 71 66 63 61 58 58 60 59 57 54 54 54 52 52 51 50 50 48 48 49 50 52 52 56 58 62 67 71
113 110 107 104 100 96 93 89 86 85 81 76 71 67 63 60 57 55 52 52 53 53 55 55 54 51 48 46 46 45 44 41 41 42 42 44 44 46 47 51 55 58 63
106 105 100 96 90 85 83 82 80 74 69 64 62 56 52 51 48 48 46 45 47 48 48 49 48 47 44 41 40 38 35 33 34 34 35 36 37 39 42 45 49 54 60
101 95 88 85 81 79 77 73 66 62 58 54 49 45 44 42 43 41 41 43 43 44 46 43 42 41 38 35 33 31 28 28 28 28 29 32 33 35 37 41 47 53 57
84 82 81 78 74 69 63 59 54 50 46 42 39 36 36 35 33 33 36 41 42 40 37 35 34 33 32 29 27 25 24 25 23 23 26 29 31 34 37 42 48 54 58
77 74 70 65 60 54 51 49 45 37 33 31 30 29 26 28 29 33 37 40 41 36 30 28 26 26 25 23 21 20 20 20 21 22 25 26 29 32 36 43 47 51 55
68 62 57 54 49 44 41 38 31 25 23 23 21 21 22 25 30 34 37 39 37 31 26 24 22 21 19 17 16 14 13 15 16 21 24 25 28 31 35 42 49 52 56
54 51 48 43 38 35 30 23 18 16 16 17 17 20 23 28 31 32 35 36 33 28 25 23 22 17 13 11 10 9 11 12 14 20 25 26 29 33 38 41 49 55 57
46 41 37 33 31 25 19 14 13 12 13 15 20 22 24 26 29 31 33 33 31 29 27 24 22 17 12 8 5 5 7 11 15 18 19 23 28 33 38 42 48 54 57
37 32 28 26 21 16 11 10 9 11 14 16 18 23 25 29 32 31 31 30 29 29 29 25 23 19 14 10 6 1 4 9 14 17 20 21 24 28 35 41 47 50 54
26 24 22 16 11 8 7 7 10 12 13 15 20 25 29 30 29 27 28 28 27 30 28 23 20 18 15 11 4 2 3 7 10 13 18 22 25 28 32 36 43 49 52
20 18 12 7 5 6 8 10 10 12 15 20 23 26 28 30 29 28 27 26 25 27 25 22 20 19 17 13 9 9 8 9 11 14 17 19 23 27 30 32 37 46 50
14 8 3 4 8 10 12 11 14 16 19 23 26 27 31 32 30 28 23 24 23 28 25 23 23 23 18 15 14 14 16 17 18 20 21 23 25 25 27 29 34 39 48
5 1 6 13 13 15 13 15 17 19 23 25 30 31 31 31 28 24 22 22 22 27 27 25 24 25 23 21 19 18 18 18 18 19 21 23 24 26 28 30 33 39 42
5 7 14 16 16 17 15 16 17 20 24 28 31 33 32 27 24 20 20 23 24 29 30 30 27 27 27 26 25 23 24 23 22 22 22 22 23 26 28 30 34 38 41
10 16 20 19 20 17 17 18 20 23 27 29 31 34 35 34 29 22 23 25 26 30 33 32 31 30 31 30 29 29 29 27 27 25 24 25 25 27 29 32 35 39 43
18 24 22 22 21 19 19 21 22 27 29 30 31 34 34 36 32 23 26 27 26 29 31 33 35 35 33 32 31 31 30 29 29 28 30 29 28 28 29 32 36 41 45
26 26 25 25 22 21 20 23 26 27 28 29 30 32 34 36 33 27 25 27 27 27 29 31 32 35 36 36 34 33 32 31 30 31 32 32 30 32 32 33 37 42 46
30 28 28 26 23 22 21 23 24 29 29 30 29 32 35 37 35 34 24 25 26 27 28 29 31 31 33 35 34 34 33 33 34 34 35 34 33 34 34 36 38 41 47

GFSGL_250_spd_066.txt.gz
Wind_Speed
102 103 104 104 105 107 109 111 113 115 117 119 120 119 117 115 112 111 111 109 109 108 110 110 109 108 107 106 102 99 98 96 95 95 94 95 97 98 97 94 96 97 101
105 106 108 110 112 114 116 118 120 121 120 118 115 112 112 112 109 109 107 106 106 107 106 105 103 100 97 96 95 93 92 91 89 89 88 86 89 89 90 89 90 93 97
110 112 115 117 119 121 122 123 121 117 114 114 114 111 109 109 109 105 104 104 104 102 98 94 90 88 86 85 84 83 82 81 80 79 80 81 84 86 86 86 86 89 93
117 119 121 123 124 124 121 118 115 114 114 113 111 106 104 104 102 102 102 99 94 89 85 83 82 81 78 75 73 71 70 68 69 69 69 74 75 79 83 83 83 84 87
123 124 125 124 121 118 116 115 114 112 110 105 103 102 100 99 100 97 91 87 85 82 78 75 72 69 67 64 61 61 59 59 60 61 63 64 69 70 77 79 78 81 83
124 123 121 119 118 115 113 112 110 106 103 101 98 95 95 95 89 85 81 78 74 70 67 65 62 60 58 57 56 55 55 54 56 56 58 60 61 65 68 72 77 76 80
121 120 118 115 113 112 110 106 100 96 95 91 90 90 86 83 80 75 70 65 62 61 58 56 54 55 54 54 53 52 52 52 51 52 52 57 59 60 62 65 72 74 77
112 111 108 106 102 99 96 93 89 86 84 83 81 78 75 71 66 63 59 57 55 52 50 50 50 50 50 49 51 54 56 52 48 46 46 53 55 55 55 58 64 69 72
102 101 100 98 93 89 86 84 80 78 75 73 69 64 61 60 56 53 50 48 47 48 47 46 46 46 50 51 52 53 51 47 45 44 42 45 48 47 49 53 58 64 69
96 95 90 85 81 80 78 73 70 68 64 60 58 54 52 50 46 42 42 44 43 43 45 44 46 47 49 49 50 48 41 39 38 36 37 39 41 42 46 50 55 61 65
89 86 83 80 74 69 66 61 58 56 53 51 48 45 42 39 38 39 39 37 37 40 43 45 45 46 45 45 44 41 36 35 32 31 32 34 35 38 41 47 48 53 58
82 77 71 66 61 57 54 51 48 47 44 42 38 34 33 33 33 33 34 36 38 39 41 42 43 43 42 41 39 35 32 30 27 27 28 29 32 33 36 40 44 47 52
69 63 58 54 49 46 45 43 40 38 34 30 29 30 29 29 30 32 34 35 38 39 39 40 41 41 40 38 34 31 27 25 23 26 26 25 27 29 32 36 40 44 47
55 52 48 44 40 38 36 33 29 26 24 24 25 26 29 30 32 35 35 34 35 35 37 38 40 39 36 31 29 26 22 19 18 20 21 22 24 25 27 31 36 41 45
47 43 38 35 33 29 26 21 19 18 18 19 22 23 27 31 30 30 29 32 32 34 35 38 36 35 32 26 24 23 19 15 13 14 17 19 21 22 26 29 33 38 43
39 34 31 29 24 20 16 15 13 12 14 17 18 24 27 28 27 24 25 28 31 32 35 32 31 30 27 21 17 15 13 10 9 11 15 19 22 25 27 30 33 38 42
31 27 25 21 15 11 10 9 6 11 12 15 20 24 26 25 20 22 24 27 30 32 30 28 27 24 21 16 12 9 6 5 8 11 15 18 21 23 26 28 32 36 39
24 20 17 11 7 5 4 2 4 7 10 15 22 26 26 22 23 25 27 30 30 28 27 28 26 22 20 17 11 6 2 4 9 11 14 18 19 22 25 26 29 34 39
17 13 8 5 4 4 1 2 3 8 13 20 23 25 22 23 24 27 28 28 27 27 27 29 28 24 21 17 12 6 0 6 9 13 15 18 18 20 22 25 27 33 39
10 7 6 8 9 7 5 4 8 13 19 23 25 22 19 21 24 25 27 26 27 27 28 29 28 26 21 18 16 10 5 3 8 11 15 18 20 21 23 27 30 34 41
7 9 11 13 11 10 8 9 12 18 22 25 25 21 19 22 24 25 25 26 27 27 28 27 26 26 24 19 17 15 10 6 6 9 12 16 21 22 24 27 29 31 39
11 14 16 15 14 12 11 13 17 21 23 25 25 20 16 22 21 23 24 26 26 26 26 27 27 28 26 24 21 18 14 9 7 10 12 15 19 24 26 28 31 35 42
15 19 19 18 17 15 15 18 21 23 24 27 26 22 16 19 21 22 23 25 25 25 24 24 25 26 26 28 25 21 17 13 10 9 11 16 19 22 27 31 35 38 44
21 21 21 21 19 16 18 20 23 24 25 27 27 22 15 14 18 20 22 22 23 24 24 23 22 24 25 27 28 26 20 16 13 11 12 15 19 24 30 34 37 40 44
24 24 24 22 19 18 20 22 24 25 25 27 28 26 22 16 17 20 20 21 21 23 23 24 22 21 23 25 28 28 25 20 16 13 13 14 18 22 28 33 41 43 48
27 28 27 24 21 20 22 23 23 25 23 26 28 26 25 21 20 19 18 19 20 21 21 21 22 20 20 21 24 27 26 24 20 16 15 15 17 22 27 32 41 46 49

GFSGL_250_spd_072.txt.gz
Wind_Speed
119 122 123 125 127 129 129 129 129 128 129 129 129 129 127 124 122 118 114 111 110 109 110 110 108 107 107 108 107 104 101 99 95 95 94 95 95 94 95 95 97 98 101
124 126 128 129 130 131 133 135 135 133 130 127 124 120 116 115 113 109 105 107 107 107 107 104 102 101 101 99 96 94 91 90 86 86 84 84 85 87 89 91 91 94 98
125 129 130 133 135 136 136 134 131 128 126 123 120 113 109 109 106 105 107 107 107 104 98 96 96 96 92 91 87 84 81 79 78 77 75 74 75 77 78 81 83 85 91
126 127 129 130 131 131 132 127 122 122 120 116 109 103 100 98 96 97 96 98 96 95 93 91 88 83 80 78 76 75 72 70 70 69 69 68 67 69 72 75 77 80 82
121 123 124 125 126 126 124 124 124 122 110 98 93 90 86 87 87 85 85 84 83 84 82 80 75 70 68 66 63 62 60 59 58 58 58 57 58 60 62 63 70 74 77
119 123 123 125 128 128 126 122 117 106 94 87 82 79 77 76 77 77 75 72 71 70 67 64 60 58 56 54 53 53 51 49 50 49 49 49 51 53 54 57 61 64 71
122 124 125 125 120 119 111 104 94 87 82 76 73 69 67 67 65 63 61 58 56 54 52 51 50 48 46 44 43 42 42 41 41 42 42 45 47 50 51 52 54 58 63
122 121 110 110 101 95 88 83 79 73 69 64 62 58 57 56 53 52 49 47 44 44 43 42 41 40 37 36 38 38 38 40 41 42 43 47 49 53 52 54 52 55 59
103 100 95 89 83 78 74 71 67 62 59 55 51 49 47 45 44 42 39 38 37 36 35 35 35 37 36 36 38 39 39 42 41 41 42 46 51 53 54 56 59 56 60
87 82 79 75 72 69 65 62 58 54 49 46 43 41 39 36 34 33 32 30 32 34 37 37 36 38 39 38 35 36 37 41 43 42 44 45 46 50 50 51 54 54 60
76 72 70 68 66 62 57 52 49 45 41 38 36 34 31 29 27 26 28 30 33 38 40 41 39 37 34 36 36 37 39 40 43 44 45 45 45 47 46 45 49 53 54
68 65 64 62 58 52 48 43 40 37 34 31 28 26 24 24 26 30 33 35 35 36 35 35 35 35 36 36 37 37 38 39 40 42 42 42 41 40 41 41 44 45 47
62 60 58 54 48 43 38 35 32 29 26 23 21 21 22 25 28 29 30 30 27 27 28 29 31 32 32 34 34 35 36 36 36 36 35 33 36 33 33 35 37 39 43
56 53 51 46 39 34 30 28 25 22 20 19 20 22 25 26 30 28 26 24 23 24 26 27 30 32 34 35 35 35 33 32 30 29 30 28 27 27 28 30 32 35 37
49 47 43 37 31 27 24 21 18 17 17 19 22 22 26 28 25 24 24 21 22 25 28 31 33 34 33 33 31 29 27 25 23 21 20 21 22 21 24 27 27 29 30
43 40 34 28 22 20 18 14 13 14 16 19 22 25 27 20 21 22 21 23 26 28 30 32 34 32 30 28 27 26 23 20 17 15 15 17 17 20 21 20 22 25 27
36 31 24 18 16 14 10 10 12 15 19 22 25 25 20 16 19 20 22 26 28 28 29 30 34 33 30 26 23 21 17 13 10 10 12 12 14 17 19 20 22 24 27
29 21 15 12 9 7 6 7 11 15 18 22 23 21 15 16 19 21 23 26 28 28 29 31 35 33 30 25 22 18 12 9 6 5 7 9 12 15 15 18 20 22 25
20 13 9 6 5 3 4 8 12 17 19 23 22 16 16 18 20 21 23 25 27 29 30 32 34 34 30 24 19 15 10 7 4 1 4 8 11 13 15 17 19 22 25
11 7 4 3 2 2 4 9 12 17 21 22 21 14 15 19 22 21 22 24 26 27 29 30 32 33 30 23 18 13 7 6 3 2 4 8 11 14 16 19 20 24 26
6 1 3 4 2 2 5 9 13 18 21 22 22 19 18 20 22 23 25 26 26 27 28 28 30 32 30 23 18 13 7 5 5 5 7 9 12 13 16 18 23 25 29
1 5 6 6 2 3 6 10 15 18 20 23 23 22 22 23 25 26 26 26 25 24 26 27 28 31 29 24 19 14 9 6 6 7 7 10 12 15 16 19 23 24 26
5 8 9 5 4 4 7 10 14 17 20 22 25 25 25 26 26 25 26 26 25 23 25 27 27 30 29 26 20 15 10 8 7 8 9 9 13 15 17 20 24 27 29
10 11 9 7 5 4 7 10 13 16 19 22 25 26 30 30 29 30 30 29 27 24 25 25 26 28 29 27 22 17 11 8 7 8 10 11 14 16 18 23 26 28 32
12 12 10 8 5 5 8 10 13 17 21 24 26 28 30 31 33 34 35 32 28 25 24 24 26 28 30 29 23 18 14 10 8 8 11 12 14 17 21 25 26 29 32
14 12 11 9 5 6 9 11 15 16 21 24 25 28 31 34 38 38 39 34 29 25 24 24 26 27 29 30 26 20 16 12 10 9 10 13 15 17 21 26 28 30 33

GFSGL_250_spd_075.txt.gz
Wind_Speed
116 119 120 121 123 126 128 131 133 135 135 136 134 130 126 124 119 115 116 109 104 101 105 104 105 106 106 108 110 108 105 104 96 98 98 100 100 103 105 105 105 106 108
114 117 121 123 125 129 132 134 134 133 131 133 128 124 121 120 118 112 104 95 93 93 94 95 98 99 100 104 102 97 97 94 88 88 86 88 91 94 97 95 95 97 99
115 118 121 122 123 124 127 130 132 130 131 131 127 121 116 113 108 95 85 83 80 82 83 84 85 88 89 88 85 81 79 79 80 78 81 82 83 83 84 88 88 90 92
114 113 114 119 122 125 128 131 132 132 129 124 123 116 105 97 92 85 79 76 77 76 76 76 77 75 75 76 75 74 71 70 71 70 73 74 72 75 77 80 80 84 87
112 117 121 123 126 127 129 130 130 125 121 116 103 98 89 81 78 72 70 69 67 67 66 65 65 64 63 63 62 63 62 62 62 62 64 63 63 64 68 66 73 74 79
113 115 118 122 125 126 128 127 126 116 105 96 86 79 74 71 68 63 59 57 56 55 55 54 53 53 53 53 53 53 53 54 54 54 56 55 57 56 57 59 63 66 72
111 113 118 122 122 122 120 110 101 94 83 77 72 67 65 60 57 54 50 48 47 46 46 46 46 45 45 45 45 46 46 46 46 45 48 49 50 52 51 53 57 60 64
107 112 116 117 111 102 95 89 84 75 70 65 61 57 55 51 49 46 43 42 41 41 40 39 39 38 35 34 33 35 37 38 37 39 41 44 45 45 45 46 49 54 57
105 102 99 93 88 84 80 77 69 64 59 54 50 49 46 43 41 39 37 36 34 33 32 29 29 31 32 31 30 34 36 37 34 36 39 41 43 46 45 46 50 51 53
92 87 84 80 76 72 70 63 58 54 50 46 43 41 39 37 35 33 30 28 28 29 29 28 27 29 33 32 31 34 36 39 39 39 40 41 45 49 50 47 48 49 52
84 79 74 69 65 63 58 52 48 45 41 39 36 34 32 30 28 26 23 25 27 30 30 28 26 28 30 31 32 34 35 36 38 39 38 39 43 47 50 51 51 52 54
76 69 65 61 57 53 48 44 40 37 35 33 31 28 25 24 25 24 27 27 25 25 26 27 29 30 31 32 33 35 37 38 39 41 41 41 41 44 47 49 51 52 52
67 62 57 53 48 44 40 37 33 31 29 26 22 20 21 23 24 27 23 21 21 22 23 26 28 30 31 32 34 35 35 35 36 38 38 39 41 42 45 46 48 50 50
60 54 49 44 40 36 33 29 26 24 21 19 18 21 21 22 24 21 20 21 22 22 24 26 29 30 32 33 33 33 32 31 31 32 32 32 33 35 37 38 41 42 44
52 47 41 37 33 30 25 21 19 17 15 17 19 21 25 23 19 20 21 22 23 25 25 27 29 30 32 31 30 28 26 25 25 24 24 24 26 27 29 30 31 34 35
44 38 34 30 27 21 17 15 13 13 15 17 22 26 23 18 19 21 22 22 23 24 26 27 27 29 30 28 24 22 20 19 18 16 17 17 18 20 23 26 28 30 31
36 31 27 23 18 15 11 9 11 14 19 24 27 22 15 17 18 20 22 23 24 24 26 26 26 28 29 26 22 18 17 14 11 10 12 12 14 16 18 20 22 23 24
29 24 19 15 12 9 6 7 10 14 18 21 19 15 13 17 20 22 23 24 24 24 25 25 25 28 27 23 20 16 14 9 8 6 5 6 8 11 14 17 18 19 22
22 17 12 10 5 4 5 8 12 17 19 17 17 16 16 19 22 24 25 26 24 22 23 23 25 28 27 22 18 15 10 6 3 3 3 5 9 12 13 14 15 18 21
16 10 7 3 3 4 6 9 14 18 18 17 18 20 19 21 23 24 24 23 23 21 21 21 23 27 28 21 18 14 10 6 2 1 4 8 11 12 14 15 17 20 24
8 5 1 4 4 4 7 10 16 16 17 18 21 23 23 23 23 24 25 24 22 18 18 18 22 27 27 21 16 12 9 7 3 2 6 8 8 11 13 16 19 23 29
3 1 5 5 4 6 8 13 16 17 17 19 22 25 25 25 24 24 23 23 20 17 16 16 21 25 26 21 16 12 8 6 2 3 6 8 10 11 16 18 22 27 31
1 5 7 5 5 6 10 15 16 16 17 20 23 24 26 27 29 27 24 21 20 17 15 16 21 25 25 22 16 12 9 5 3 4 6 8 13 17 17 19 24 28 32
5 8 6 5 6 8 13 14 15 17 17 21 22 26 30 32 32 30 28 23 21 18 17 16 21 24 25 22 18 13 9 6 3 4 8 9 13 17 20 22 27 29 34
8 7 5 5 6 11 13 14 15 16 18 22 22 27 31 32 32 31 27 24 23 20 19 18 22 24 26 25 21 15 10 7 5 6 8 10 12 16 22 24 29 32 34
9 7 5 5 8 12 14 14 15 18 20 21 22 27 31 34 35 32 29 27 25 23 21 21 24 27 28 25 22 17 13 8 6 6 6 10 13 15 21 25 30 34 35

GFSGL_250_spd_078.txt.gz
Wind_Speed
103 105 107 109 111 114 117 120 123 125 126 128 130 130 131 133 131 125 122 118 117 116 105 98 95 93 93 95 99 102 102 104 103 101 108 112 115 115 116 115 112 112 115
101 105 109 112 116 120 123 122 124 127 129 134 134 136 137 134 130 120 118 116 106 96 92 85 84 84 84 85 86 91 90 91 91 91 100 107 106 108 108 104 101 99 104
103 108 110 112 111 115 121 126 130 134 137 137 135 133 130 127 122 117 106 96 90 84 82 77 77 75 75 76 75 76 76 77 74 70 80 86 89 94 95 96 100 97 95
104 105 107 110 114 121 123 125 128 131 134 131 128 127 117 110 108 98 90 84 81 76 73 70 70 68 66 65 64 65 65 66 66 66 67 74 75 78 78 83 84 85 88
102 109 114 117 116 120 123 125 129 132 129 123 118 108 100 93 89 83 78 73 70 68 65 62 61 59 57 57 56 55 56 56 57 57 59 63 66 68 71 72 73 78 83
105 108 111 113 115 119 123 123 120 117 111 102 96 89 84 79 74 70 64 62 61 59 57 54 51 50 49 47 46 45 46 46 47 48 50 52 57 56 60 61 66 69 77
108 111 112 114 115 116 114 110 104 98 92 87 81 76 70 66 63 58 55 54 53 50 48 46 44 42 41 40 39 39 39 39 41 41 43 45 48 49 49 54 58 62 66
110 111 111 113 111 105 99 94 89 84 78 72 66 62 60 55 53 50 48 46 45 44 41 38 36 35 33 33 33 35 36 37 35 36 38 41 42 43 44 47 50 55 55
112 113 107 100 95 91 88 82 76 70 64 58 54 53 50 46 44 42 41 40 37 36 33 32 31 33 35 33 33 36 39 39 37 38 39 42 42 43 41 40 45 48 49
111 104 94 87 84 80 75 68 63 58 52 48 45 43 40 39 37 34 32 32 33 34 33 32 28 29 32 31 29 30 36 36 36 36 38 41 45 44 42 43 45 48 48
96 88 83 78 73 69 62 56 51 47 43 41 37 35 34 33 30 29 28 28 32 34 32 29 28 29 30 32 32 33 35 37 37 37 36 37 40 42 45 44 42 46 48
85 79 72 67 63 56 51 45 40 38 35 31 31 29 28 26 27 27 27 30 29 30 30 30 30 31 32 34 36 37 39 40 40 40 38 37 40 42 47 45 44 45 47
76 68 62 57 50 45 39 35 33 30 28 27 25 23 22 24 26 31 30 26 25 27 30 31 32 34 36 36 37 37 39 40 41 40 40 39 39 41 44 43 46 49 47
65 58 52 46 40 35 31 28 26 24 22 20 20 21 22 26 28 26 24 24 26 27 27 29 31 33 35 35 36 37 37 37 36 36 36 36 37 38 39 41 44 48 49
56 48 42 36 31 28 25 22 20 17 17 19 21 23 26 23 21 21 24 26 29 28 28 29 31 33 34 35 36 35 33 32 31 30 29 30 32 33 34 36 39 42 45
45 39 33 28 25 21 18 15 13 14 16 20 26 27 25 21 21 23 26 28 29 29 30 30 32 33 33 34 34 31 27 25 23 22 23 24 25 27 28 29 32 34 35
37 31 26 23 18 15 10 10 12 16 20 24 25 25 23 22 23 26 28 29 30 29 29 30 31 32 32 34 30 25 23 21 18 16 16 16 17 19 21 22 24 25 27
31 25 21 15 11 7 7 10 14 17 21 22 21 21 22 22 25 28 29 31 31 29 29 27 29 28 30 31 26 21 18 16 14 12 11 11 13 14 15 16 18 21 23
25 20 13 9 5 6 9 12 16 20 20 18 20 23 23 24 26 28 29 30 30 28 26 24 25 25 28 27 21 19 15 12 10 7 7 8 9 10 12 13 15 18 22
21 13 8 4 5 8 11 15 19 18 18 19 20 21 22 25 27 30 30 30 28 25 22 22 21 23 26 24 18 16 13 10 8 6 5 3 4 6 9 13 16 18 21
13 8 4 6 7 10 14 18 16 16 16 17 18 22 25 29 32 33 31 28 26 22 21 18 20 22 23 22 18 14 10 7 7 4 2 2 3 5 8 13 15 17 20
8 5 6 7 10 14 17 16 15 16 16 17 20 26 30 31 32 31 29 25 23 20 18 18 20 23 23 20 18 14 10 7 6 3 2 5 7 8 10 12 16 19 21
4 7 8 9 13 16 15 14 16 15 17 19 23 28 32 34 32 30 27 24 22 20 18 18 22 24 22 18 15 14 10 6 5 2 3 6 9 10 13 14 15 19 22
6 9 9 13 15 14 13 13 14 16 17 19 24 29 32 33 33 30 27 25 22 20 19 20 23 23 21 18 15 12 9 6 4 3 4 6 9 12 14 16 17 21 23
8 10 11 13 14 14 12 13 15 18 17 20 25 29 31 34 32 30 26 24 22 22 24 26 26 24 22 19 16 12 8 6 4 4 4 7 9 12 15 17 18 21 23
10 9 12 13 14 14 12 13 15 18 17 22 25 29 32 31 28 27 25 23 25 27 28 28 29 27 23 20 17 13 10 6 3 5 7 8 8 12 16 16 18 21 25

GFSGL_250_spd_081.txt.gz
Wind_Speed
98 97 98 99 102 105 107 111 112 111 112 115 119 123 127 130 133 133 133 131 131 126 120 106 100 93 86 85 85 83 84 85 79 78 90 99 105 114 120 122 118 116 113
91 95 99 102 105 106 107 108 113 116 118 121 124 127 131 135 136 133 129 124 114 106 98 91 85 83 79 75 72 72 72 72 70 63 79 87 91 98 104 109 110 109 113
94 97 98 99 103 109 112 113 116 118 120 124 129 130 132 129 126 120 114 104 97 92 86 80 75 74 72 69 67 67 66 65 64 61 67 76 81 83 86 92 97 102 110
91 95 100 105 108 111 113 116 119 121 123 125 125 123 120 117 111 103 97 90 84 80 75 72 69 66 64 62 60 60 59 59 58 56 59 64 67 71 74 80 80 82 87
95 100 102 105 111 117 120 121 124 124 122 119 117 113 107 101 95 88 82 77 74 70 65 63 59 55 55 54 53 52 52 51 50 49 52 56 57 58 62 65 69 73 75
99 101 105 112 119 120 120 118 117 115 113 108 102 97 92 85 79 73 69 66 63 60 56 52 50 49 47 46 45 45 46 45 44 44 46 49 51 51 51 54 59 64 69
98 104 111 116 122 121 114 110 108 103 98 94 89 82 77 72 66 63 59 56 53 49 47 44 43 42 41 41 41 42 42 41 41 39 41 45 46 46 44 47 53 58 63
108 113 118 118 113 109 104 99 95 90 85 80 75 70 65 60 56 53 49 47 44 43 41 39 39 39 37 37 38 39 40 39 35 36 38 41 39 41 42 43 47 50 54
115 111 108 104 99 94 90 86 82 77 73 68 62 58 54 50 47 43 41 40 39 37 36 35 35 37 36 36 36 37 38 35 33 36 38 41 38 39 38 37 41 45 50
112 103 96 91 88 83 79 74 69 65 60 55 50 48 44 40 37 34 34 35 35 35 33 34 34 35 36 34 32 34 36 33 32 30 33 38 40 40 38 36 39 42 44
99 91 87 82 77 72 67 63 58 53 48 44 42 37 34 33 31 30 30 32 35 36 36 33 31 31 32 34 34 34 35 34 34 35 33 34 38 41 41 37 38 42 42
89 83 77 71 66 61 56 52 47 42 38 35 31 28 28 28 30 30 31 32 35 35 32 32 33 32 33 34 35 37 37 37 38 38 36 36 38 39 41 42 40 38 41
80 74 67 60 55 49 44 40 36 33 27 25 24 24 24 27 31 33 33 31 29 29 30 33 36 36 36 37 37 37 37 37 38 39 39 37 36 36 39 41 43 40 39
69 62 56 50 45 40 35 30 25 21 20 20 21 23 26 27 28 29 28 28 28 29 32 33 33 33 34 34 35 36 35 36 37 36 34 32 32 32 34 37 39 40 42
60 53 47 41 35 30 25 20 17 16 17 19 23 26 27 28 29 29 29 29 31 32 33 33 33 33 33 33 34 34 35 36 33 30 29 28 28 28 30 33 36 38 44
52 44 38 32 26 20 16 14 13 15 18 23 26 28 29 31 31 30 31 33 35 35 34 34 33 33 33 33 33 34 35 30 26 24 24 24 24 25 27 29 31 35 39
43 35 30 23 18 14 12 11 12 17 22 23 25 28 29 30 30 32 33 34 35 34 32 32 31 29 30 31 33 34 29 24 21 20 19 19 20 20 21 24 26 29 33
35 29 21 16 13 10 11 14 19 22 23 23 25 27 29 31 33 34 35 34 32 29 28 28 26 27 29 32 35 29 23 20 17 15 16 16 15 15 17 19 22 24 27
29 19 15 12 10 11 14 17 19 20 21 22 25 29 33 36 37 37 35 34 31 27 26 24 24 26 29 33 32 24 19 15 13 12 12 10 9 10 13 16 20 22 23
20 14 10 9 11 14 17 18 20 19 21 23 28 31 35 37 38 34 32 31 29 27 24 23 24 26 31 31 27 22 15 12 11 9 7 5 5 8 10 12 15 17 20
15 9 7 10 13 16 17 18 18 21 24 25 30 35 39 38 36 33 32 29 27 25 23 23 25 30 32 28 24 19 12 10 8 6 5 3 4 7 8 10 13 14 16
10 7 8 11 14 15 17 17 19 21 22 27 34 38 39 37 36 33 29 27 26 25 24 26 30 31 31 26 19 16 9 7 6 5 3 3 5 3 4 7 10 13 14
6 6 9 12 14 15 15 18 20 22 25 31 36 38 38 33 31 29 29 29 29 29 29 30 30 27 25 23 17 13 8 6 3 3 3 3 3 2 3 5 8 11 13
7 8 11 14 15 15 15 18 21 24 27 33 36 39 36 30 28 27 28 30 31 32 32 32 31 28 23 22 19 13 9 5 4 1 1 2 3 1 2 5 7 10 13
7 10 13 15 16 15 16 19 21 24 28 33 39 39 35 30 28 29 29 31 33 34 34 34 32 27 22 20 17 13 9 6 4 2 1 1 3 1 4 6 9 12 15
9 12 14 16 16 15 18 18 20 25 30 35 38 36 34 32 31 30 30 33 35 35 34 33 32 29 24 21 16 13 9 6 4 2 2 3 2 2 6 7 12 14 17

GFSGL_250_spd_084.txt.gz
Wind_Speed
91 94 96 98 96 93 96 98 101 106 109 111 112 114 114 117 121 122 125 125 125 125 125 122 119 115 105 96 89 83 79 76 68 66 80 84 89 100 105 105 101 100 102
92 93 90 89 92 94 98 103 107 107 107 108 112 116 120 124 127 130 131 129 124 119 116 110 101 93 89 84 78 74 71 69 64 58 69 79 82 86 93 96 95 95 97
84 85 89 92 96 99 100 101 104 107 112 118 121 126 130 131 130 128 126 117 109 102 97 93 87 82 77 72 68 65 62 60 56 52 58 67 71 73 77 80 83 83 87
85 89 91 94 95 99 102 104 111 119 124 128 131 134 131 128 126 118 110 102 97 92 87 80 74 69 64 61 58 55 54 53 51 48 52 57 59 62 63 66 71 74 77
84 87 92 96 100 104 112 117 123 125 126 124 124 123 121 116 108 102 97 91 85 78 72 66 61 57 56 53 51 50 50 49 47 47 47 50 51 53 54 57 59 61 68
86 89 93 98 105 111 115 121 123 120 119 117 113 107 104 100 94 86 79 74 69 63 58 54 52 50 49 48 45 45 44 43 41 41 42 44 45 47 46 49 53 55 61
87 91 97 101 108 115 118 114 113 111 105 101 98 93 86 81 75 70 64 59 55 51 49 47 46 44 42 41 39 40 40 37 34 34 38 41 39 37 39 43 46 49 54
94 101 106 109 111 114 108 104 100 96 91 85 81 75 71 66 61 55 50 47 45 44 44 42 42 39 35 35 36 36 36 34 32 35 37 39 36 32 29 33 38 45 47
100 105 109 110 108 102 96 92 87 82 77 71 66 61 56 50 46 43 42 41 40 40 38 36 36 36 34 33 33 34 33 28 27 29 33 36 34 33 28 30 33 36 43
104 105 106 103 96 90 86 80 75 68 62 57 51 46 42 40 38 36 35 37 37 37 34 34 34 35 35 32 29 30 31 30 27 25 28 32 34 35 31 27 30 36 37
108 105 99 92 85 79 74 67 61 55 49 43 37 37 35 34 32 31 32 33 35 35 34 33 31 30 30 31 31 31 32 31 30 30 29 32 34 36 35 33 29 30 36
104 97 89 81 74 68 61 53 47 41 36 33 30 29 29 30 32 32 33 34 35 34 32 31 31 31 32 32 34 32 31 33 34 33 32 32 32 33 35 35 33 31 31
94 85 78 70 63 55 48 41 35 31 28 26 25 25 27 30 31 32 32 32 32 32 32 33 34 35 35 34 34 35 34 34 35 33 32 33 32 32 34 36 37 35 33
81 74 66 60 51 44 38 33 27 24 22 21 24 27 28 30 30 31 32 31 30 30 31 33 35 35 34 34 33 33 32 31 30 29 31 33 33 32 32 34 36 37 36
71 64 57 48 42 35 29 24 21 20 20 23 24 27 29 29 31 33 33 32 31 30 31 30 31 30 28 29 29 30 29 27 29 29 27 27 27 27 27 29 32 35 35
61 54 47 40 32 25 21 19 18 21 23 26 28 31 32 34 36 36 34 33 30 30 30 29 28 27 27 27 27 26 27 29 27 24 23 22 22 22 24 26 30 32 34
53 45 39 30 24 19 16 16 20 23 26 27 29 32 35 39 38 37 34 31 30 27 26 25 25 25 25 25 26 29 29 26 22 21 20 17 16 16 18 21 24 26 29
45 37 28 22 16 14 17 20 22 24 26 29 32 35 39 38 36 35 32 30 28 26 26 27 26 26 27 29 30 29 25 21 19 17 15 14 14 14 14 16 18 22 26
37 27 21 15 13 15 18 20 22 24 27 31 35 38 37 36 36 35 33 32 31 31 30 30 31 32 33 33 29 25 21 18 15 14 12 12 11 11 11 13 14 16 20
28 20 13 11 14 16 18 21 24 27 30 33 37 39 37 35 34 33 34 34 34 34 34 35 36 36 35 32 26 22 18 15 13 11 10 10 8 8 8 9 11 13 17
20 14 10 13 15 17 19 22 26 28 31 35 38 39 38 37 36 36 36 37 39 39 39 37 36 34 33 29 24 20 16 13 12 10 8 6 4 5 6 7 7 8 14
15 10 12 14 16 18 20 23 26 30 33 37 38 40 39 38 35 35 36 39 40 42 41 39 37 33 29 26 22 18 13 11 10 9 6 4 4 3 3 3 5 7 11
10 11 13 16 17 18 21 24 27 32 35 39 39 40 41 39 36 36 36 38 41 43 42 40 36 32 29 26 21 16 12 10 9 8 6 6 5 4 3 0 4 7 9
13 13 16 17 18 19 21 25 28 32 37 38 38 40 41 42 40 39 39 41 42 42 40 39 36 32 29 26 21 15 11 10 8 7 6 7 7 7 5 3 5 7 9
14 16 18 18 18 20 22 25 28 33 38 40 37 39 40 41 39 38 39 39 42 42 39 37 34 31 28 26 21 16 11 8 7 6 6 7 8 8 7 7 8 9 11
16 18 19 19 19 21 22 27 29 32 37 40 38 38 39 42 41 39 40 39 41 41 39 36 33 31 28 24 21 15 11 8 6 5 4 6 8 8 9 9 9 12 13

GFSGL_250_spd_087.txt.gz
Wind_Speed
86 88 89 90 92 94 94 94 97 100 103 105 108 110 111 113 114 116 119 123 123 125 126 127 126 124 118 110 102 95 88 87 80 75 75 83 88 92 95 96 95 93 93
82 84 87 87 87 88 93 97 99 100 102 105 107 110 112 116 120 121 122 127 126 126 124 123 113 103 95 91 86 82 79 74 68 61 68 69 73 77 84 84 83 84 84
80 79 79 84 89 92 93 94 96 99 103 106 110 113 116 119 122 126 128 125 127 123 112 102 96 88 82 77 74 71 67 64 59 55 58 59 62 64 68 74 74 73 75
71 77 81 83 85 85 88 93 98 104 108 111 117 120 122 124 126 130 127 116 105 101 93 85 79 74 70 67 63 60 57 56 53 50 51 51 54 55 58 62 65 65 67
70 73 77 80 85 90 96 104 108 112 114 117 119 121 124 125 121 111 103 95 88 82 75 70 65 61 58 56 52 51 49 48 46 45 44 46 46 48 51 51 55 56 61
73 78 83 88 95 100 103 106 109 113 115 117 119 116 111 104 96 89 81 76 70 64 61 57 54 50 48 47 45 46 45 43 41 40 40 42 40 41 43 45 47 50 55
79 86 90 95 97 101 105 108 111 114 114 111 103 96 90 83 77 70 66 61 57 53 50 47 45 42 41 41 41 42 41 37 35 37 39 39 37 35 35 37 39 45 50
83 88 93 95 99 103 106 109 111 105 97 91 84 78 72 66 62 57 53 48 45 43 42 41 41 38 36 37 38 38 37 33 33 36 38 38 36 32 31 32 36 40 43
89 94 96 100 103 105 106 104 96 89 81 75 69 62 57 53 49 45 43 41 39 37 36 37 38 36 34 35 37 37 35 29 29 31 34 38 36 32 28 29 33 38 40
94 98 102 102 104 103 96 88 81 74 68 61 56 50 45 41 39 38 37 36 36 34 34 35 36 36 34 34 32 32 32 31 31 30 32 35 37 35 32 30 29 33 39
100 103 103 103 99 89 82 74 69 61 56 50 45 41 38 36 33 33 34 36 36 36 35 33 33 32 32 32 32 33 34 35 34 33 33 34 34 36 36 33 33 32 32
102 103 101 94 84 77 69 63 56 50 44 39 37 35 32 31 33 34 34 33 33 33 32 32 32 31 31 31 34 34 34 34 34 33 32 32 32 34 36 36 35 35 35
102 99 90 80 72 64 58 51 44 38 35 33 32 32 32 32 29 28 30 31 32 32 32 32 33 34 34 35 35 35 35 34 34 32 32 33 33 34 35 36 37 37 37
98 88 77 69 61 54 48 39 34 32 30 30 32 30 27 26 28 30 30 31 32 31 30 31 32 34 34 34 32 32 33 32 30 29 31 32 32 34 34 34 36 39 38
85 75 66 57 50 43 35 32 30 29 30 30 27 25 25 26 28 29 30 31 30 30 29 29 29 28 26 27 28 27 25 25 26 28 30 32 32 32 31 30 33 36 38
72 63 54 47 38 32 30 28 28 28 26 25 26 29 29 29 28 28 28 28 29 28 27 27 25 25 24 23 22 22 23 25 26 26 25 24 23 24 24 25 27 31 34
60 51 43 35 30 27 26 25 25 26 26 27 28 29 28 27 26 27 28 29 31 30 30 29 28 26 25 25 25 24 24 23 22 20 19 19 19 20 21 22 23 26 30
47 39 31 27 25 23 25 25 24 21 21 25 28 28 26 25 28 30 31 33 35 35 35 35 34 32 30 29 26 24 21 19 18 17 16 15 15 15 15 18 21 24 27
37 29 25 22 22 23 23 21 20 22 25 28 29 29 30 33 33 34 35 36 38 39 39 37 35 33 32 28 24 21 19 17 15 14 13 12 11 11 12 13 16 20 23
30 25 22 22 23 23 20 20 22 25 28 28 27 29 33 34 33 35 36 39 41 42 42 39 37 34 31 25 22 20 18 14 13 12 11 9 9 9 8 9 13 16 18
27 24 23 23 24 20 19 20 24 30 31 30 31 32 34 35 36 37 39 41 44 46 45 41 38 35 30 26 23 20 16 13 11 9 8 7 7 5 6 7 10 11 14
28 26 26 25 21 20 20 22 25 32 33 32 34 37 39 40 40 40 42 43 44 44 43 41 38 33 29 24 22 18 15 13 10 8 5 5 3 2 3 5 7 10 13
29 28 27 25 22 20 22 24 26 32 34 35 36 38 40 41 42 42 42 43 43 41 39 38 36 32 28 25 21 19 14 11 9 6 3 2 2 1 2 4 7 10 11
29 28 29 26 24 20 24 25 28 33 33 35 37 39 40 42 42 43 43 44 42 40 39 38 35 31 28 25 21 18 14 11 8 5 1 1 2 2 3 5 8 10 11
29 29 28 26 24 20 24 26 30 34 34 36 38 40 41 41 43 44 45 44 44 44 43 40 37 33 29 26 21 18 14 9 7 5 1 2 2 4 6 7 8 9 11
27 27 28 27 23 20 23 25 29 33 36 36 39 42 43 43 43 43 43 44 44 44 43 41 37 33 29 26 21 16 13 9 6 4 1 3 4 4 7 8 10 12 13

GFSGL_250_spd_090.txt.gz
Wind_Speed
78 81 84 88 91 92 92 91 88 89 92 95 97 99 103 106 111 114 117 119 121 124 127 128 129 130 126 126 122 117 110 101 90 95 84 86 92 90 92 97 95 93 94
80 83 86 86 87 85 83 84 87 88 92 96 100 104 109 113 116 119 121 124 127 129 130 130 127 124 115 106 99 94 90 84 77 75 72 71 74 79 80 85 84 82 82
79 79 81 77 76 79 81 83 87 92 96 100 104 108 113 116 120 123 125 126 128 128 122 113 105 98 92 87 81 78 74 70 66 63 62 59 59 65 66 70 69 70 71
72 69 70 73 75 76 81 88 93 96 100 105 108 112 116 120 123 126 125 122 114 104 97 91 86 81 76 71 67 63 60 58 54 53 52 51 52 54 58 58 60 59 61
64 68 68 71 76 81 88 92 96 100 104 109 113 117 120 121 120 112 103 97 90 85 81 74 69 65 59 55 53 51 50 48 46 45 46 47 48 47 49 49 53 53 55
63 67 72 75 81 87 93 98 102 106 109 112 114 114 113 106 97 90 84 78 72 67 63 60 56 52 49 47 45 45 45 42 40 40 42 45 45 42 42 44 47 47 50
65 70 76 82 88 93 99 103 107 110 111 111 108 100 92 86 80 73 67 62 58 55 52 50 47 44 42 43 42 43 42 40 38 39 40 41 41 39 39 40 40 42 46
69 75 81 87 93 99 104 107 107 108 105 97 90 84 77 70 65 60 55 51 48 46 45 45 44 41 39 40 40 40 40 37 37 40 40 41 43 41 38 38 38 40 44
76 82 86 92 99 104 106 107 106 98 88 81 74 67 61 56 53 49 47 46 45 44 43 42 42 41 39 39 40 40 39 36 36 37 39 42 42 42 39 36 36 38 43
82 87 93 99 104 106 104 101 92 82 74 65 58 55 49 46 43 42 41 41 42 41 40 41 41 41 40 40 40 40 39 38 35 34 35 39 42 42 40 38 36 35 38
88 92 99 103 103 102 95 85 76 67 59 52 46 42 41 40 42 41 40 40 41 42 41 40 40 39 39 39 38 38 38 38 38 37 36 38 42 43 43 42 39 37 36
93 98 101 101 97 87 78 70 61 53 45 41 37 36 38 38 38 38 39 39 40 41 40 38 37 37 37 37 38 37 37 38 40 42 40 38 38 40 41 42 42 41 39
97 99 97 89 80 72 63 54 47 39 36 34 35 36 33 33 35 37 38 35 33 32 33 33 33 33 34 34 33 33 33 33 33 34 35 34 34 35 37 41 43 43 40
95 90 82 73 65 56 47 39 33 31 32 33 32 29 29 31 32 29 27 28 29 30 31 31 31 30 30 31 31 29 28 28 28 29 30 32 33 34 35 37 39 40 41
83 73 65 58 50 40 32 27 27 30 30 28 27 30 30 28 25 24 26 26 28 29 30 29 30 29 28 30 30 30 29 30 30 31 31 32 32 33 34 35 36 36 36
67 58 50 42 33 25 24 27 29 28 26 26 28 28 26 25 24 24 25 27 29 32 32 33 32 30 29 29 29 29 31 32 33 32 30 29 29 29 29 30 32 32 35
53 42 34 26 22 23 24 24 24 23 25 26 24 26 27 25 24 27 29 31 33 34 36 36 34 33 32 30 28 28 27 26 25 23 22 22 22 22 22 23 24 26 30
40 31 26 27 27 27 25 23 19 19 20 20 21 23 26 28 30 32 33 35 38 41 42 41 39 36 31 29 28 25 22 22 20 17 16 16 18 19 19 20 22 24 25
36 34 34 33 31 26 21 18 19 22 21 19 22 27 30 34 35 35 36 38 40 42 44 43 41 37 33 31 27 24 22 19 15 13 13 14 14 15 16 17 18 20 23
39 37 36 34 29 22 20 18 22 24 21 22 27 30 32 35 36 38 39 41 41 43 44 45 42 39 34 32 28 24 20 17 13 11 12 12 12 13 14 15 16 17 19
36 37 37 33 27 22 20 19 22 23 24 27 31 34 37 39 40 41 41 41 42 43 44 46 44 41 36 33 30 24 20 16 13 12 12 12 11 12 12 12 13 15 17
34 35 36 31 27 22 21 20 23 23 26 29 33 37 39 40 41 41 42 43 43 44 44 44 44 41 37 33 28 23 19 14 12 11 11 10 11 11 10 11 12 13 15
31 33 33 31 26 20 20 21 23 25 28 31 34 37 40 41 41 42 42 43 45 46 46 44 43 41 37 31 28 22 17 14 12 10 10 10 10 11 10 9 10 12 13
28 30 31 30 25 20 19 20 23 25 29 32 35 38 39 42 42 43 43 43 44 46 45 44 42 40 36 31 27 23 17 13 11 10 9 10 9 10 8 8 9 11 13
27 28 30 29 27 21 19 20 23 25 29 32 36 39 40 42 44 43 43 43 44 45 43 43 41 40 36 31 27 23 18 13 11 9 8 8 9 8 6 6 7 9 12
27 26 28 28 26 21 19 19 22 25 27 30 34 39 42 44 44 44 43 44 44 44 43 42 40 38 35 31 26 22 18 12 11 9 7 7 7 6 4 5 6 9 12

GFSGL_250_spd_093.txt.gz
Wind_Speed
74 75 77 81 84 87 90 93 96 98 99 101 101 100 100 100 104 109 113 117 121 124 128 132 133 134 133 129 126 122 115 109 99 98 92 93 96 91 95 94 95 99 99
75 77 80 84 87 90 93 93 95 96 96 94 95 96 98 103 108 112 117 121 124 126 127 126 125 124 119 110 102 96 92 89 82 78 80 77 75 78 81 81 81 81 86
76 79 82 85 87 88 90 91 89 90 91 93 96 101 106 111 114 120 122 124 124 123 121 115 107 101 96 90 85 81 77 73 70 66 67 65 62 64 68 69 69 70 72
77 78 81 82 83 82 82 84 87 90 94 98 102 106 111 115 119 123 123 121 118 109 100 95 89 84 78 74 70 66 63 61 59 56 58 57 54 54 55 57 58 60 61
74 74 74 73 76 80 83 87 91 94 97 102 106 109 112 117 120 120 116 108 99 91 84 78 74 70 64 61 58 56 53 51 50 49 49 50 48 47 47 49 50 51 54
64 66 71 74 77 81 84 89 94 99 104 108 110 113 117 119 116 107 97 90 82 75 70 66 61 57 54 53 52 50 49 47 45 44 45 47 45 45 43 44 46 45 48
63 67 71 74 79 86 91 96 101 104 108 111 113 115 114 108 96 88 80 74 69 62 58 57 56 53 51 50 50 49 48 46 45 44 43 44 43 42 42 40 43 42 44
64 69 75 81 87 93 97 101 105 108 109 111 111 107 96 86 79 71 64 59 56 56 55 54 53 52 50 48 48 47 46 45 44 44 44 44 44 44 41 38 38 38 40
70 76 82 88 93 98 102 105 107 109 109 105 94 85 77 69 61 54 52 52 52 54 53 50 49 50 48 47 47 45 43 41 41 41 41 43 42 42 43 39 36 35 37
77 85 91 96 102 105 106 108 106 101 91 82 74 66 59 53 50 48 49 51 50 47 47 46 44 43 43 42 42 42 41 39 38 37 37 38 39 40 40 38 38 38 34
85 93 98 104 104 105 103 95 85 77 69 63 55 48 44 45 47 49 48 46 45 44 41 39 40 41 41 41 40 39 37 37 38 37 36 35 37 39 41 40 40 40 38
92 97 99 99 96 88 79 72 64 58 52 44 40 38 39 42 44 46 47 46 42 38 38 39 40 41 41 41 41 39 38 36 36 37 36 36 37 39 40 41 40 40 38
95 97 92 82 73 67 61 54 48 42 36 32 34 36 38 39 42 43 42 39 37 37 38 39 40 41 42 42 42 41 39 38 37 37 37 37 36 37 38 38 39 39 38
90 85 73 64 58 52 46 39 34 29 29 32 33 35 35 37 36 35 35 34 35 35 36 36 38 39 40 42 42 41 41 41 40 38 36 35 34 34 34 33 33 35 35
80 70 61 54 46 39 33 29 28 28 29 30 31 31 31 30 29 29 30 31 33 34 34 35 36 37 37 37 38 37 38 38 38 38 38 36 34 33 31 30 29 29 31
74 60 48 41 38 36 33 31 28 28 29 30 30 30 27 28 29 29 30 32 35 36 37 37 38 38 39 38 36 35 33 33 32 31 30 30 29 28 28 28 28 29 30
66 54 42 39 38 35 32 29 27 29 30 29 28 25 27 27 27 28 30 33 36 38 39 40 41 42 41 38 37 35 32 30 28 26 26 25 23 23 22 22 23 24 26
59 47 38 38 36 34 31 28 26 29 27 26 23 24 24 27 29 31 33 35 36 38 41 43 43 43 43 41 38 35 31 28 26 24 23 21 20 19 19 20 20 22 23
53 40 34 35 34 32 29 28 28 27 24 22 22 24 27 30 34 36 38 39 39 39 42 43 44 43 42 41 37 34 30 28 24 21 20 18 18 17 17 18 19 20 22
48 35 31 32 33 31 28 27 27 25 24 24 25 27 28 31 34 36 39 41 41 42 44 45 45 44 42 41 38 34 30 27 22 18 17 17 16 16 16 16 16 17 19
45 33 29 30 31 29 25 26 26 24 24 26 27 29 32 36 39 41 42 43 44 45 45 46 45 43 41 40 39 34 31 24 22 19 17 16 15 15 14 15 15 16 16
44 33 27 28 29 28 26 26 25 23 23 24 27 29 32 36 40 42 44 44 45 45 46 46 44 43 41 39 37 33 29 25 21 19 17 16 15 15 15 15 15 14 14
44 35 26 26 27 28 26 25 24 23 23 25 28 32 35 37 41 43 45 44 44 45 46 45 43 42 41 38 35 31 26 23 20 18 16 16 14 15 15 16 15 13 13
46 37 28 25 26 27 25 24 25 24 24 25 28 32 36 39 42 45 45 44 45 45 46 45 43 40 39 37 34 29 24 20 19 17 14 15 13 14 14 14 13 11 11
52 40 31 24 24 25 25 24 25 25 24 26 28 32 35 39 43 45 45 45 46 46 47 46 43 41 39 36 31 26 22 18 17 16 13 12 13 12 13 13 11 9 9
62 46 36 27 22 22 24 25 25 26 25 26 29 33 36 40 43 47 47 47 48 48 47 47 44 41 39 34 29 24 19 16 15 13 11 10 10 10 11 10 8 7 7

GFSGL_250_spd_096.txt.gz
Wind_Speed
67 69 73 77 81 85 88 89 90 90 94 98 101 104 106 106 106 105 104 104 106 110 114 117 120 124 127 128 130 130 125 114 102 98 94 92 92 91 92 92 94 95 97
69 72 74 76 79 81 84 88 92 96 98 101 103 103 102 100 99 102 105 108 111 114 119 123 126 126 126 127 120 109 101 93 86 82 79 75 74 76 75 77 79 80 82
68 71 74 77 82 85 89 92 95 98 98 97 96 96 97 100 103 106 109 113 117 121 123 123 122 123 118 106 98 90 84 79 74 70 70 64 62 60 62 62 64 65 70
71 75 80 84 86 89 91 93 92 91 91 92 94 97 100 104 108 112 116 118 118 120 120 120 115 105 97 90 84 78 73 67 64 61 59 58 54 50 54 53 54 55 57
76 80 82 84 86 85 85 84 85 88 92 95 99 103 108 111 115 115 116 117 118 117 113 104 96 88 82 76 71 68 64 62 58 54 53 52 51 46 44 46 47 47 49
72 76 77 76 75 76 79 84 88 93 98 104 109 112 114 114 116 115 115 113 108 99 93 86 80 74 68 65 62 60 56 55 54 51 50 49 47 45 42 44 42 41 45
65 64 65 68 73 79 85 90 97 102 106 110 111 112 114 114 112 109 102 94 89 82 76 71 68 64 61 57 55 53 51 49 48 49 49 48 47 44 43 42 39 39 43
56 60 66 72 78 85 92 98 104 107 110 112 112 110 107 102 94 88 83 78 73 68 65 60 58 57 54 50 49 48 47 46 45 44 44 44 45 44 42 42 40 37 39
57 64 70 77 83 91 98 103 106 107 106 100 94 89 84 80 75 72 68 64 60 58 54 50 47 46 45 45 46 47 47 45 44 43 42 41 40 41 42 41 41 38 39
63 70 77 84 90 98 104 103 101 90 82 78 74 69 67 65 62 58 53 52 52 50 45 42 41 42 45 46 47 48 48 46 44 42 41 40 40 40 40 39 39 40 35
70 77 84 90 96 100 98 89 75 69 65 60 58 55 54 51 48 47 46 45 45 45 45 44 44 45 46 48 50 50 49 47 46 43 41 38 37 37 39 39 39 41 37
75 83 89 94 95 91 82 72 66 61 55 49 45 43 41 41 40 41 41 41 42 43 45 45 46 46 46 46 47 49 48 46 45 44 42 39 37 35 34 34 37 42 42
80 84 89 90 88 78 68 62 59 54 49 44 39 37 35 35 36 36 38 39 38 38 40 42 43 43 44 45 45 45 45 45 43 41 40 38 35 32 30 30 29 31 36
81 83 84 82 76 66 58 53 49 44 39 36 34 34 34 33 34 35 37 37 36 36 37 37 38 39 40 41 42 42 40 39 38 38 38 35 32 29 28 27 28 28 29
79 81 80 73 63 56 51 46 42 38 36 36 35 34 34 31 33 34 33 34 36 36 37 37 38 38 39 39 38 38 37 36 34 34 32 30 29 28 26 25 26 27 27
78 77 71 61 53 47 45 42 40 37 36 38 35 35 33 35 34 32 33 33 35 37 38 39 40 41 42 43 42 39 37 35 33 32 28 26 26 25 24 23 22 23 24
75 72 62 52 45 41 39 38 34 34 37 36 34 31 33 32 32 32 33 34 36 37 39 39 41 43 43 43 43 40 38 36 33 31 28 25 23 22 21 20 20 20 21
73 65 53 45 38 37 36 35 32 33 33 31 31 31 31 32 32 35 38 40 41 40 40 42 44 46 45 45 44 41 38 36 33 29 27 25 22 20 18 17 18 18 19
69 59 48 42 35 34 32 32 30 31 31 30 29 28 29 30 31 35 39 42 42 43 45 46 47 47 46 45 44 42 39 35 33 28 26 24 21 20 19 17 16 16 17
68 57 46 39 33 32 31 31 29 30 30 29 30 31 32 32 33 36 39 42 43 44 46 47 48 47 47 46 44 41 38 34 32 28 24 21 19 20 16 16 14 14 15
67 58 47 40 32 30 29 30 30 29 29 29 31 32 33 35 36 38 43 45 47 47 48 48 49 48 48 45 44 42 38 33 29 27 22 19 17 16 14 12 12 11 12
73 63 49 39 34 30 29 29 29 27 29 30 31 31 33 35 37 39 43 47 49 49 50 49 48 47 46 44 42 40 35 30 26 24 20 18 16 15 13 11 10 10 11
76 67 54 41 35 30 29 28 29 28 28 29 31 32 35 37 39 41 44 48 50 51 52 50 48 46 44 43 41 37 32 27 24 21 18 16 15 13 12 10 9 10 9
80 70 59 45 36 31 28 28 28 29 29 29 31 34 36 38 40 42 46 49 50 50 50 49 48 45 44 42 38 34 29 25 21 19 16 14 13 11 11 9 9 9 8
85 75 65 48 38 33 28 27 28 29 30 30 32 34 36 38 40 43 48 51 52 52 50 50 47 45 43 40 36 31 26 22 19 16 14 13 11 10 10 9 8 7 6
86 81 68 54 42 34 31 27 26 27 29 31 32 34 36 37 41 44 49 53 54 54 51 49 46 43 40 36 32 27 22 19 17 14 12 11 9 9 8 7 6 5 4

GFSGL_250_spd_099.txt.gz
Wind_Speed
75 77 79 79 80 84 87 87 89 89 90 91 93 96 100 103 106 107 105 103 103 103 105 107 109 111 114 118 120 122 124 121 118 117 111 103 96 89 86 83 82 82 82
75 76 79 84 84 85 84 86 88 89 91 96 100 104 105 104 101 99 99 101 104 106 109 112 115 118 120 122 122 120 119 115 105 96 91 85 79 73 69 71 70 69 70
64 75 78 79 80 81 84 86 88 93 98 101 102 100 98 96 97 101 103 105 110 114 117 119 120 121 121 119 115 110 101 92 86 78 73 72 69 65 61 62 63 61 61
62 66 70 74 78 80 84 89 93 94 94 93 92 92 95 99 102 106 109 112 117 119 120 119 118 114 109 102 95 87 80 75 70 68 67 67 66 60 58 57 58 56 55
61 64 68 72 76 79 81 83 84 83 84 89 93 97 100 104 109 112 114 116 117 115 113 108 100 93 87 80 74 69 67 66 66 66 65 63 62 58 54 53 55 51 49
56 59 63 67 71 72 71 73 77 84 89 95 99 103 108 111 111 110 108 103 99 95 93 88 82 75 69 65 64 63 63 59 59 57 56 54 54 53 52 52 49 49 47
56 59 60 59 61 65 71 78 84 90 96 99 104 106 107 105 98 88 85 85 84 79 75 70 66 63 60 61 61 59 56 51 46 49 50 48 50 48 49 48 47 45 46
47 50 53 58 65 71 77 84 90 94 100 103 104 103 92 78 74 73 69 66 63 60 58 57 58 59 55 52 50 49 48 46 46 46 47 48 47 46 45 46 45 44 45
43 49 57 64 70 77 83 87 92 99 102 102 94 80 68 66 63 58 53 51 50 51 52 53 51 49 45 44 46 48 49 48 46 46 46 47 46 44 44 42 43 43 43
50 57 63 70 73 79 86 92 97 100 98 90 75 67 64 59 56 52 50 49 49 47 44 44 43 45 46 46 47 49 51 51 51 51 48 46 44 42 43 41 41 42 43
56 63 70 73 79 85 90 95 96 93 83 70 64 62 57 52 48 45 43 39 39 42 43 43 44 44 44 45 46 47 49 51 53 53 52 48 44 41 39 38 38 40 41
62 70 72 76 83 89 93 92 88 78 65 58 56 52 47 45 42 38 35 37 40 42 43 43 44 44 43 43 45 46 46 47 47 49 49 47 44 39 35 34 34 36 40
64 66 76 81 87 91 88 82 72 59 54 53 49 45 42 38 35 35 37 39 40 41 42 43 44 44 45 45 46 46 45 45 45 45 44 43 41 38 33 30 31 34 36
64 73 79 83 85 84 78 67 57 47 47 46 43 41 38 34 34 36 36 36 39 41 41 41 41 42 43 44 46 45 43 44 44 44 41 38 37 34 30 28 27 30 31
69 77 79 82 82 78 65 54 46 43 43 42 38 36 35 33 32 33 34 35 37 41 43 43 41 40 42 43 43 43 41 42 42 42 40 36 33 30 26 24 22 22 26
71 81 79 81 78 70 56 45 39 41 42 40 35 34 33 33 34 35 36 36 38 40 42 43 44 44 44 44 44 44 42 42 42 42 39 36 31 26 23 21 20 20 20
72 80 80 78 76 64 51 43 39 36 38 39 37 34 32 33 34 36 38 39 40 42 43 44 45 46 46 47 46 45 43 42 41 40 37 34 30 25 20 19 20 19 18
72 81 81 78 76 62 48 40 39 38 37 34 33 34 33 33 33 36 39 41 44 45 46 47 46 47 48 48 47 46 43 41 41 39 36 32 27 23 20 18 18 18 18
76 82 83 75 74 62 46 38 37 37 37 36 33 31 33 34 33 35 37 41 44 47 49 49 48 50 49 48 47 45 42 41 40 37 34 29 25 22 19 19 18 17 17
76 83 81 76 74 63 47 37 34 35 35 35 35 35 35 34 34 35 38 42 45 48 52 52 51 51 49 48 46 44 42 40 37 34 32 27 22 20 18 17 17 17 17
77 84 82 77 74 64 47 37 32 31 32 33 34 35 36 37 38 39 42 44 46 50 53 55 54 51 49 47 45 42 41 38 34 31 29 24 21 19 17 16 16 16 16
77 84 85 78 75 65 47 37 32 29 29 31 31 32 35 38 39 40 41 44 47 51 54 56 55 52 50 47 44 41 37 34 31 28 26 22 19 17 15 14 15 15 15
81 82 84 83 77 65 48 37 32 29 28 28 30 32 33 36 37 39 41 44 48 52 56 54 52 50 48 45 41 37 33 30 26 24 22 19 17 16 13 13 13 14 13
82 85 85 85 78 68 50 38 32 29 27 27 28 31 34 36 38 39 41 45 49 54 55 54 50 47 44 41 37 33 29 26 22 20 18 16 15 14 11 12 12 13 11
79 83 87 87 83 73 53 40 34 31 27 25 27 30 33 37 38 40 42 46 50 54 53 52 51 47 41 37 32 29 25 21 19 16 14 13 13 11 10 11 10 9 8
77 81 85 87 85 77 58 44 36 33 29 25 25 28 32 36 39 41 44 47 51 53 53 51 47 42 37 33 29 24 21 17 15 12 10 10 9 8 8 9 8 6 4

GFSGL_250_spd_105.txt.gz
Wind_Speed
74 78 80 84 86 88 76 83 89 91 98 102 107 112 112 111 113 116 117 113 114 114 114 115 115 114 115 117 117 117 119 121 122 124 125 125 126 125 125 123 123 120 116
75 77 81 85 89 91 92 93 96 102 102 107 110 112 114 116 116 111 111 109 109 110 111 111 112 113 114 116 117 120 122 123 120 119 117 112 108 106 101 98 97 95 94
71 73 78 82 84 86 88 92 93 95 100 105 106 109 105 105 107 107 107 106 107 108 109 111 115 115 115 116 116 115 112 104 97 91 89 89 89 87 83 81 78 76 73
75 78 78 79 81 85 88 94 99 103 99 99 100 101 103 103 100 98 101 104 107 109 111 112 114 112 109 105 99 90 86 84 80 78 78 74 71 70 68 66 66 64 64
78 80 83 88 92 93 91 88 91 94 93 94 94 92 90 92 95 100 103 107 110 111 111 108 105 104 97 87 81 77 71 68 68 67 65 64 61 60 57 56 56 56 55
71 74 73 73 77 80 84 84 84 84 82 79 80 86 91 96 100 103 104 107 107 106 103 100 96 86 77 73 68 64 61 59 57 54 54 52 52 50 51 53 54 55 55
61 67 70 68 68 70 71 69 67 68 74 80 87 92 96 99 102 103 102 104 103 101 96 87 78 72 66 62 57 55 53 50 45 43 44 44 47 44 45 46 47 49 52
60 60 59 58 57 55 54 59 66 72 78 84 89 94 100 103 105 102 97 94 92 82 72 67 66 62 58 53 48 45 45 44 43 43 43 45 47 46 46 46 46 44 47
46 46 43 42 45 50 55 62 68 73 81 87 92 95 100 98 90 87 84 73 67 61 58 56 53 50 47 41 39 42 44 44 46 46 45 45 47 49 49 49 48 48 48
34 34 36 41 46 52 57 64 72 79 84 89 92 93 90 84 80 70 61 55 53 53 52 47 41 38 38 38 39 41 43 46 47 49 49 48 49 49 49 50 50 50 48
28 33 37 42 48 54 60 69 76 81 86 91 90 85 81 74 62 54 48 46 47 47 46 43 37 33 33 36 38 40 43 46 49 51 53 53 52 51 51 50 50 50 49
29 33 38 44 50 58 66 74 79 86 93 91 86 82 72 61 50 45 44 41 41 41 41 39 37 35 37 39 39 41 43 46 48 51 54 56 53 52 52 51 49 48 47
29 34 40 48 55 63 73 81 85 91 93 89 82 72 61 48 42 41 42 40 39 37 36 38 37 39 41 43 44 46 47 49 51 53 55 55 53 52 52 50 49 47 46
30 36 44 53 62 70 77 85 87 95 94 85 72 60 49 40 36 37 38 39 38 37 37 37 38 40 43 45 48 49 51 52 53 54 54 54 53 52 50 49 48 47 43
31 41 50 59 67 74 81 85 90 93 90 74 60 49 40 35 32 33 34 36 36 37 38 38 39 41 43 44 47 49 51 53 56 57 56 53 53 51 49 48 46 44 40
35 45 53 61 68 77 85 87 91 92 81 63 52 43 34 31 30 30 31 32 34 36 37 38 41 43 45 48 49 51 52 55 57 57 57 54 52 51 48 46 44 41 37
39 47 56 65 71 81 89 90 94 87 70 55 45 37 33 31 30 29 30 32 33 36 38 40 43 45 48 50 52 54 57 58 58 58 57 53 52 49 46 44 40 37 34
41 50 58 66 73 81 88 90 92 85 63 50 42 36 34 31 30 31 33 34 35 36 41 43 46 48 50 52 55 57 59 59 58 57 55 52 49 46 43 40 36 34 32
43 51 59 66 73 81 88 92 92 84 63 49 39 37 34 30 29 30 31 33 36 38 40 43 45 48 50 53 55 58 59 58 57 55 52 47 44 41 38 36 33 31 29
45 51 58 66 73 80 85 90 91 83 65 51 44 38 33 28 27 28 31 34 37 40 43 45 48 50 52 55 57 58 58 56 51 48 44 41 38 35 33 31 29 28 26
44 50 58 65 72 79 84 89 92 85 68 53 49 43 36 29 26 28 30 33 38 43 47 50 52 54 55 56 55 52 49 45 42 40 37 35 33 31 28 26 26 24 23
44 49 56 62 71 76 81 86 91 85 73 56 51 44 35 30 29 30 33 37 41 45 49 51 54 55 55 52 49 45 42 39 36 34 31 29 27 25 24 22 22 22 20
45 50 54 61 67 74 80 82 87 86 77 60 53 45 35 30 29 31 34 37 41 45 49 53 54 52 48 44 41 39 37 34 31 27 24 22 21 20 19 18 18 18 18
45 49 53 58 65 72 77 80 83 87 80 67 55 48 38 32 31 32 35 38 42 47 51 52 50 47 42 39 37 34 31 28 25 22 19 18 17 16 15 16 16 16 16
44 47 50 56 63 69 75 77 80 84 85 76 59 52 43 36 34 34 37 40 46 49 51 50 47 43 37 34 32 29 27 24 21 19 17 16 15 14 14 14 14 15 15
43 45 50 55 61 65 71 74 77 81 85 81 70 55 48 40 37 37 40 44 47 50 51 48 44 38 35 33 29 26 24 23 21 19 16 15 14 13 13 13 12 12 12

GFSGL_250_spd_108.txt.gz
Wind_Speed
61 59 59 58 73 76 81 81 82 84 87 90 92 94 98 100 103 107 114 117 122 124 123 128 131 133 128 127 123 122 121 119 118 119 120 120 121 119 119 117 113 106 103
71 71 73 66 70 71 74 75 73 74 84 85 89 93 101 105 111 117 119 123 125 127 133 132 130 126 121 118 118 121 122 120 120 118 114 110 107 100 93 89 86 85 83
77 83 84 87 81 82 86 86 89 92 96 99 103 107 110 112 114 119 123 126 130 130 128 126 122 117 119 120 120 118 118 116 113 109 105 94 87 82 79 76 74 72 71
75 80 84 89 92 88 88 89 94 99 105 107 108 106 109 115 118 122 126 126 125 124 118 114 114 115 114 114 114 112 110 107 104 95 86 81 77 72 68 67 66 63 64
70 75 80 84 87 88 88 92 94 96 95 98 103 109 114 118 120 120 117 113 110 109 108 106 107 110 112 108 108 105 103 97 85 78 73 68 65 65 62 60 60 58 57
70 71 75 78 79 81 83 87 92 95 99 105 110 112 112 110 104 101 102 102 108 108 111 110 107 105 103 100 99 92 82 76 72 68 67 64 61 56 55 54 52 54 55
72 73 75 77 81 83 87 90 95 99 101 99 96 95 92 93 96 98 102 105 107 108 108 103 102 97 92 86 78 71 66 64 59 55 52 50 50 49 47 47 46 48 50
66 69 73 77 80 82 81 81 80 79 80 79 79 82 84 90 94 97 102 105 107 105 102 95 89 80 73 65 61 60 58 55 50 50 45 44 44 46 46 48 49 49 50
47 49 51 54 59 59 62 63 62 66 70 71 74 80 91 95 96 102 104 105 103 96 89 78 70 63 58 55 54 52 53 51 45 43 42 43 44 46 47 48 49 50 51
49 50 49 51 48 46 48 55 59 62 65 72 80 91 97 97 101 102 102 98 89 80 71 63 55 52 53 51 48 47 45 45 43 45 45 45 45 46 47 47 48 49 49
36 35 35 34 38 44 49 54 59 66 74 78 88 96 97 98 99 96 87 78 70 63 57 53 48 47 46 46 45 44 43 42 43 45 49 50 49 49 50 50 48 49 49
27 28 29 34 39 44 49 56 64 72 79 87 91 98 98 95 85 75 67 61 54 49 49 47 45 44 43 44 45 44 42 41 43 46 49 52 53 53 53 52 52 50 49
24 25 29 34 40 46 53 61 68 77 85 90 96 99 93 77 66 60 55 50 45 40 42 45 43 42 43 44 45 45 44 45 46 48 50 52 54 55 56 54 54 52 50
23 26 31 36 43 49 57 64 73 82 86 94 97 92 77 63 56 50 45 41 39 38 39 41 41 43 44 45 47 47 48 49 51 52 54 55 56 56 56 54 53 54 51
24 28 33 40 46 54 61 68 77 82 88 95 94 82 65 55 48 43 39 36 35 36 38 39 40 43 45 46 48 50 52 52 53 53 54 56 57 57 56 54 53 52 50
27 31 37 43 51 58 65 71 76 81 88 94 91 76 58 50 45 41 37 33 33 34 36 38 39 41 43 46 47 48 48 49 50 51 54 56 57 57 56 54 52 49 47
31 35 40 46 52 59 67 74 81 82 84 90 91 71 56 50 45 40 33 29 30 33 34 35 37 40 43 45 46 49 51 53 54 55 57 57 57 56 53 51 49 45 42
33 36 42 47 53 60 67 72 80 85 89 90 87 70 58 50 44 38 33 30 30 32 36 38 40 43 46 49 52 55 57 58 58 57 55 53 53 50 46 44 42 40 37
33 37 40 46 54 61 66 72 80 83 84 86 85 67 58 50 43 37 34 32 33 34 37 40 43 47 51 54 55 57 57 57 56 53 50 46 43 41 39 38 36 34 32
32 36 40 46 52 59 65 73 80 81 81 83 85 70 55 47 41 37 34 34 36 39 41 44 47 49 52 54 56 55 53 50 48 45 42 39 36 35 34 32 31 29 27
32 35 39 45 50 58 65 72 77 79 79 80 84 75 59 49 41 37 35 34 35 37 40 44 48 50 52 53 51 48 44 41 39 37 34 31 29 28 26 25 24 23 22
31 34 38 45 50 57 63 70 74 77 79 79 82 78 64 53 45 41 39 39 39 41 45 48 50 51 49 46 43 40 37 35 32 31 29 26 24 21 20 19 19 20 19
31 32 38 45 49 55 61 67 72 74 77 77 80 82 71 57 48 42 41 41 42 46 49 51 50 47 44 41 38 35 32 30 28 26 23 21 18 17 16 16 16 16 17
30 32 39 44 49 55 60 63 68 71 74 76 79 83 78 65 53 46 44 44 46 48 49 50 47 43 39 35 32 28 26 24 23 20 19 17 15 14 13 13 14 14 15
28 33 39 44 49 54 57 61 66 69 72 74 77 80 82 71 58 50 46 46 49 50 49 46 42 39 35 32 30 28 24 22 21 19 18 17 15 14 13 13 13 13 14
27 33 38 44 47 51 55 59 63 67 71 72 75 78 85 77 65 55 49 48 50 52 51 47 42 38 35 31 28 27 25 23 22 20 18 17 15 14 13 13 12 11 11

GFSGL_250_spd_111.txt.gz
Wind_Speed
77 71 71 64 66 70 71 61 63 72 78 86 90 89 87 90 93 93 95 96 99 103 106 110 118 122 126 130 133 135 139 137 129 121 124 125 123 120 118 115 109 105 103
77 75 55 63 75 69 68 70 72 74 76 82 87 90 88 87 90 94 97 101 109 112 118 121 125 130 135 136 138 140 136 122 121 125 126 126 121 116 110 103 100 93 83
58 62 69 69 71 79 77 78 74 77 88 94 93 95 98 98 99 103 108 115 115 119 124 127 131 133 136 139 136 127 120 121 123 124 121 115 109 105 99 93 84 77 72
62 63 65 69 78 74 82 81 81 80 83 87 90 97 100 101 105 110 115 118 118 123 125 129 134 138 134 119 119 121 118 120 120 116 112 104 100 92 82 76 72 67 66
61 65 72 75 82 90 86 85 88 90 92 95 96 101 106 110 113 117 119 121 124 129 137 137 132 116 117 123 120 118 121 117 115 105 97 89 81 73 69 64 64 63 59
65 69 72 77 84 86 90 96 93 93 96 97 100 102 104 110 118 119 123 130 133 129 122 112 113 121 120 118 119 118 117 112 101 88 78 73 67 64 59 60 56 55 55
64 67 68 68 73 82 88 89 92 96 100 104 107 108 111 114 119 123 124 118 107 106 109 117 120 120 119 118 117 113 106 94 81 71 65 65 63 59 56 55 51 49 49
66 67 68 69 72 75 77 81 87 89 92 97 104 109 112 114 109 100 95 99 102 109 114 118 120 118 114 109 102 94 84 74 65 58 58 59 57 57 54 52 51 47 49
66 65 67 71 75 77 81 83 85 86 87 88 91 90 85 83 84 89 95 100 108 112 113 114 109 101 93 85 78 71 65 61 56 55 55 54 54 55 54 53 50 49 50
51 53 53 54 58 59 59 58 60 66 68 72 72 75 78 81 87 92 97 104 108 107 100 91 84 78 73 66 60 55 56 56 54 54 53 54 54 54 54 53 52 51 52
37 36 37 39 41 43 46 51 55 60 63 68 71 72 75 82 89 95 101 103 97 86 78 72 67 62 59 52 49 49 50 50 52 53 54 54 54 56 55 52 52 52 55
32 30 32 35 36 38 44 49 54 59 63 66 72 75 79 86 92 95 99 89 75 68 63 58 53 49 46 45 45 46 47 48 50 53 54 56 56 57 56 55 54 53 55
28 29 31 31 35 40 46 49 54 58 63 71 76 78 85 88 90 94 87 72 64 60 56 52 47 43 41 42 43 45 47 48 49 51 53 54 54 55 55 55 55 55 57
29 30 29 31 37 43 47 49 55 60 68 74 79 82 84 87 90 88 73 65 60 54 50 46 43 41 39 40 42 43 45 46 48 49 51 52 52 53 54 54 56 56 59
30 29 30 34 39 43 47 50 56 62 70 78 83 85 89 89 90 77 65 59 52 47 44 41 40 40 41 42 44 46 46 46 48 49 51 53 54 54 56 56 59 60 62
29 29 33 36 41 43 47 49 56 62 70 76 82 84 85 86 85 70 59 51 46 42 40 39 39 41 43 45 47 49 50 51 52 54 56 57 58 59 60 60 60 61 62
30 30 33 38 41 44 45 51 58 62 68 77 82 83 82 83 80 67 56 47 42 39 37 38 39 41 44 47 50 52 54 55 56 57 58 57 58 59 59 59 58 58 56
31 31 34 39 41 42 45 51 58 65 73 78 82 83 81 82 79 67 56 47 42 41 41 40 41 43 46 49 51 54 55 57 58 58 57 55 53 52 49 48 47 46 44
31 31 34 38 39 38 45 51 57 65 72 78 80 78 77 78 79 71 60 51 46 45 44 45 47 49 51 53 55 56 56 56 54 52 49 47 45 43 41 40 39 38 37
30 32 34 37 35 38 46 51 57 65 70 76 80 78 76 76 78 70 60 51 46 46 46 48 50 52 53 53 52 50 48 46 44 43 42 40 37 35 33 32 31 31 30
30 32 34 34 33 40 46 52 57 63 69 74 78 77 76 78 81 75 64 54 48 46 48 51 53 55 53 50 47 43 40 39 37 36 34 32 30 28 26 25 25 24 24
30 32 34 32 32 41 46 52 56 61 67 73 76 76 74 77 80 80 70 59 52 49 50 53 54 52 50 46 43 39 37 35 32 31 29 26 23 21 20 19 19 19 20
31 33 33 30 34 41 46 51 56 61 64 70 75 75 76 76 80 83 74 62 54 51 52 53 51 47 43 40 39 34 31 29 27 26 24 21 18 16 15 14 14 14 15
30 33 31 30 35 41 45 51 55 60 63 67 72 74 76 76 78 83 77 66 56 52 53 53 51 47 43 40 36 31 28 26 23 21 19 18 15 13 12 12 12 13 13
31 32 30 30 36 40 45 51 55 58 62 65 70 73 74 75 78 83 81 70 58 53 53 53 50 46 43 39 35 32 29 27 25 23 20 17 15 14 13 12 12 12 12
30 31 30 31 36 40 46 50 54 58 61 64 68 71 74 75 78 81 85 73 60 53 53 53 50 46 42 37 33 30 28 26 24 22 20 18 16 15 13 12 11 11 10

GFSGL_250_spd_117.txt.gz
Wind_Speed
71 79 66 63 65 69 70 69 68 70 73 70 68 75 77 79 80 84 87 90 84 88 91 93 90 89 90 99 108 112 115 117 120 127 126 135 136 137 143 145 148 141 132
70 75 68 65 69 72 75 73 72 72 67 79 77 80 82 85 88 90 95 95 97 98 98 98 97 101 106 110 116 124 126 128 132 132 134 140 143 148 151 146 141 132 117
67 76 70 63 69 74 77 79 77 82 80 81 82 81 86 87 88 91 93 96 99 97 97 104 110 114 120 124 124 126 126 133 137 143 146 147 152 150 149 137 122 126 126
60 77 78 69 69 73 77 79 80 82 84 86 84 84 85 85 87 89 92 96 98 103 108 111 111 113 117 123 129 137 141 140 141 145 147 139 140 127 123 126 127 124 120
59 67 81 77 75 74 75 80 78 75 76 75 78 80 86 86 91 95 97 99 102 105 107 114 116 120 126 133 136 134 138 140 139 136 128 120 127 126 125 121 121 115 100
57 63 77 86 80 81 81 83 82 83 86 85 86 87 91 95 97 99 103 106 109 111 116 121 125 135 139 132 136 132 123 122 125 127 125 124 126 122 118 104 89 84 77
56 65 69 83 87 82 84 85 89 87 86 88 91 94 97 98 107 110 112 114 118 121 123 125 124 126 119 108 114 119 120 122 122 120 118 113 103 94 84 79 74 67 60
50 57 61 67 79 89 87 88 88 90 92 92 97 102 103 106 107 106 104 107 111 112 113 107 95 99 105 110 113 115 115 117 105 94 88 85 79 74 69 64 59 53 47
61 61 63 65 66 74 77 80 83 84 82 85 87 86 87 90 93 94 97 100 103 88 84 89 96 104 107 109 109 110 105 89 80 75 71 67 64 61 56 51 46 42 41
61 68 69 69 69 68 70 74 77 77 78 78 79 82 86 89 93 91 87 77 77 80 84 94 99 99 102 102 101 94 83 73 69 65 59 55 53 50 47 43 42 41 42
36 46 51 62 70 73 74 75 76 77 81 83 84 86 83 73 70 68 67 72 77 81 89 91 92 94 93 94 90 78 69 65 62 57 53 50 46 44 44 43 43 43 44
35 37 39 42 46 57 64 61 59 59 60 61 61 60 60 61 60 64 68 71 77 84 85 87 89 92 94 89 75 65 60 60 59 57 52 50 48 47 46 47 47 46 46
34 36 35 37 36 36 40 42 46 49 52 52 52 54 55 56 61 65 67 71 78 79 81 84 86 91 93 83 70 61 55 52 52 53 53 52 51 51 50 51 51 50 50
31 34 33 34 38 38 38 39 42 46 49 50 50 51 53 57 62 63 65 72 75 76 80 83 85 89 84 72 64 60 57 55 54 53 52 51 52 52 54 54 54 53 54
29 31 32 32 37 43 43 43 45 47 48 48 50 51 53 57 59 62 68 73 73 76 81 84 87 88 78 65 58 56 56 57 57 57 57 57 56 55 54 54 53 54 54
29 30 32 32 33 38 44 47 49 50 49 49 51 52 54 57 59 64 69 71 72 75 82 82 88 84 72 63 58 57 58 57 55 54 52 52 53 53 53 53 53 54 55
32 30 32 35 35 35 38 43 46 48 48 48 49 50 54 58 60 65 69 70 73 76 83 83 88 81 68 60 58 59 58 56 53 49 46 45 44 45 44 45 46 47 48
35 32 32 34 36 37 36 39 42 45 46 48 49 50 55 59 62 66 69 70 74 78 84 85 88 81 68 62 60 59 54 50 47 44 42 40 38 37 37 38 38 38 38
36 36 35 35 37 38 38 38 41 44 46 46 47 49 56 59 64 69 70 70 75 79 84 85 88 81 69 64 62 59 53 47 43 41 39 37 35 34 31 31 30 31 31
38 38 39 37 37 38 40 38 39 42 44 47 47 50 55 59 64 68 69 70 76 80 84 84 88 82 69 65 62 57 52 48 44 40 38 36 34 31 28 26 26 25 25
37 39 40 40 39 39 41 38 37 39 43 46 47 52 56 59 63 67 68 71 77 80 83 84 87 81 69 65 62 56 50 45 42 40 37 34 32 29 26 25 23 22 20
37 39 40 41 42 41 40 41 37 39 43 43 47 51 57 61 63 67 69 72 77 79 82 84 87 81 68 65 61 55 50 46 41 38 35 32 30 27 25 23 21 20 18
38 42 43 43 43 43 42 44 38 39 43 44 47 51 56 61 63 67 68 71 76 77 81 83 85 80 67 64 59 54 49 44 40 36 34 31 28 25 24 22 21 19 18
41 42 43 45 45 44 44 44 39 40 43 44 47 52 57 61 63 68 67 70 76 76 79 81 84 79 65 62 58 52 46 43 40 35 32 31 29 27 26 24 22 21 18
39 40 44 46 45 45 45 45 42 40 43 44 47 53 57 61 64 68 68 69 75 75 77 80 82 76 62 60 55 49 44 41 37 34 31 30 30 28 27 26 25 23 21
41 42 43 45 44 44 45 45 42 40 42 44 48 53 57 61 64 67 67 69 74 73 75 77 79 74 60 57 52 46 41 37 34 31 30 29 29 29 28 27 26 24 23